Time,TemperatureF,DewpointF,PressureIn,WindDirection,WindDirectionDegrees,WindSpeedMPH,WindSpeedGustMPH,Humidity,HourlyPrecipIn,Conditions,Clouds,dailyrainin,SoftwareType,DateUTC
2013-03-28 00:00:00,33.9,26.5,29.45,WNW,293,5.0,9.0,74,0.00,,,0.00,WUHU216DAVISVP2,2013-03-28 04:00:00,
2013-03-28 00:05:00,33.9,26.2,29.45,WNW,297,4.0,9.0,73,0.00,,,0.00,WUHU216DAVISVP2,2013-03-28 04:05:00,
2013-03-28 00:10:00,33.8,26.1,29.45,WNW,287,4.0,9.0,73,0.00,,,0.00,WUHU216DAVISVP2,2013-03-28 04:10:00,
2013-03-28 00:15:00,33.7,26.0,29.45,WNW,287,7.0,9.0,73,0.00,,,0.00,WUHU216DAVISVP2,2013-03-28 04:15:00,
2013-03-28 00:16:00,33.7,26.0,29.45,WNW,298,5.0,9.0,73,0.00,,,0.00,WUHU216DAVISVP2,2013-03-28 04:16:00,
2013-03-28 00:20:00,33.7,26.0,29.45,WNW,295,6.0,8.0,73,0.00,,,0.00,WUHU216DAVISVP2,2013-03-28 04:20:00,
2013-03-28 00:21:00,33.7,26.0,29.45,WNW,299,5.0,8.0,73,0.00,,,0.00,WUHU216DAVISVP2,2013-03-28 04:21:00,
2013-03-28 00:25:00,33.7,26.0,29.45,WNW,290,5.0,8.0,73,0.00,,,0.00,WUHU216DAVISVP2,2013-03-28 04:25:00,
2013-03-28 00:27:00,33.7,26.0,29.45,WNW,294,5.0,8.0,73,0.00,,,0.00,WUHU216DAVISVP2,2013-03-28 04:27:00,
2013-03-28 00:30:00,33.6,25.9,29.45,WNW,294,4.0,8.0,73,0.00,,,0.00,WUHU216DAVISVP2,2013-03-28 04:30:00,
2013-03-28 00:32:00,33.6,25.9,29.45,WNW,294,6.0,8.0,73,0.00,,,0.00,WUHU216DAVISVP2,2013-03-28 04:32:00,
2013-03-28 00:35:00,33.5,25.8,29.45,WNW,294,5.0,8.0,73,0.00,,,0.00,WUHU216DAVISVP2,2013-03-28 04:35:00,
2013-03-28 00:36:00,33.5,25.8,29.45,WNW,294,5.0,8.0,73,0.00,,,0.00,WUHU216DAVISVP2,2013-03-28 04:36:00,
2013-03-28 00:37:00,33.5,25.8,29.45,WNW,294,3.0,8.0,73,0.00,,,0.00,WUHU216DAVISVP2,2013-03-28 04:37:00,
2013-03-28 00:41:00,33.5,26.1,29.45,WNW,284,5.0,8.0,74,0.00,,,0.00,WUHU216DAVISVP2,2013-03-28 04:41:00,
2013-03-28 00:42:00,33.4,26.1,29.45,WNW,287,4.0,8.0,74,0.00,,,0.00,WUHU216DAVISVP2,2013-03-28 04:42:00,
2013-03-28 00:46:00,33.4,26.1,29.45,WNW,283,2.0,8.0,74,0.00,,,0.00,WUHU216DAVISVP2,2013-03-28 04:46:00,
2013-03-28 00:47:00,33.3,26.0,29.45,WNW,283,7.0,8.0,74,0.00,,,0.00,WUHU216DAVISVP2,2013-03-28 04:47:00,
2013-03-28 00:48:00,33.3,26.0,29.45,WNW,283,4.0,8.0,74,0.00,,,0.00,WUHU216DAVISVP2,2013-03-28 04:48:00,
2013-03-28 00:51:00,33.2,25.9,29.45,WNW,285,7.0,8.0,74,0.00,,,0.00,WUHU216DAVISVP2,2013-03-28 04:51:00,
2013-03-28 00:52:00,33.2,25.9,29.45,WNW,285,4.0,8.0,74,0.00,,,0.00,WUHU216DAVISVP2,2013-03-28 04:52:00,
2013-03-28 00:53:00,33.2,25.9,29.45,WNW,285,5.0,8.0,74,0.00,,,0.00,WUHU216DAVISVP2,2013-03-28 04:53:00,
2013-03-28 00:57:00,33.2,25.9,29.45,WNW,285,5.0,8.0,74,0.00,,,0.00,WUHU216DAVISVP2,2013-03-28 04:57:00,
2013-03-28 00:58:00,33.2,25.9,29.45,WNW,285,5.0,8.0,74,0.00,,,0.00,WUHU216DAVISVP2,2013-03-28 04:58:00,
2013-03-28 01:02:00,33.2,25.9,29.45,WNW,292,6.0,8.0,74,0.00,,,0.00,WUHU216DAVISVP2,2013-03-28 05:02:00,
2013-03-28 01:03:00,33.2,25.9,29.45,WNW,291,7.0,8.0,74,0.00,,,0.00,WUHU216DAVISVP2,2013-03-28 05:03:00,
2013-03-28 01:07:00,33.2,25.8,29.45,WNW,285,6.0,9.0,74,0.00,,,0.00,WUHU216DAVISVP2,2013-03-28 05:07:00,
2013-03-28 01:08:00,33.2,25.8,29.45,WNW,285,5.0,9.0,74,0.00,,,0.00,WUHU216DAVISVP2,2013-03-28 05:08:00,
2013-03-28 01:12:00,33.1,25.7,29.45,WNW,287,6.0,9.0,74,0.00,,,0.00,WUHU216DAVISVP2,2013-03-28 05:12:00,
2013-03-28 01:13:00,33.1,25.7,29.45,WNW,295,6.0,9.0,74,0.00,,,0.00,WUHU216DAVISVP2,2013-03-28 05:13:00,
2013-03-28 01:14:00,33.1,26.0,29.45,WNW,295,4.0,9.0,75,0.00,,,0.00,WUHU216DAVISVP2,2013-03-28 05:14:00,
2013-03-28 01:17:00,33.0,25.9,29.45,WNW,301,4.0,9.0,75,0.00,,,0.00,WUHU216DAVISVP2,2013-03-28 05:17:00,
2013-03-28 01:18:00,33.0,25.9,29.45,WNW,293,8.0,9.0,75,0.00,,,0.00,WUHU216DAVISVP2,2013-03-28 05:18:00,
2013-03-28 01:19:00,33.0,25.9,29.45,WNW,287,6.0,9.0,75,0.00,,,0.00,WUHU216DAVISVP2,2013-03-28 05:19:00,
2013-03-28 01:23:00,33.0,25.9,29.45,WNW,297,8.0,9.0,75,0.00,,,0.00,WUHU216DAVISVP2,2013-03-28 05:23:00,
2013-03-28 01:24:00,32.9,25.8,29.45,WNW,297,6.0,9.0,75,0.00,,,0.00,WUHU216DAVISVP2,2013-03-28 05:24:00,
2013-03-28 01:28:00,33.0,25.9,29.45,WNW,294,5.0,8.0,75,0.00,,,0.00,WUHU216DAVISVP2,2013-03-28 05:28:00,
2013-03-28 01:29:00,32.9,25.8,29.45,WNW,291,6.0,8.0,75,0.00,,,0.00,WUHU216DAVISVP2,2013-03-28 05:29:00,
2013-03-28 01:33:00,32.9,26.2,29.45,WNW,295,6.0,8.0,76,0.00,,,0.00,WUHU216DAVISVP2,2013-03-28 05:33:00,
2013-03-28 01:34:00,32.8,26.1,29.45,WNW,295,5.0,8.0,76,0.00,,,0.00,WUHU216DAVISVP2,2013-03-28 05:34:00,
2013-03-28 01:38:00,32.7,26.0,29.45,WNW,295,6.0,8.0,76,0.00,,,0.00,WUHU216DAVISVP2,2013-03-28 05:38:00,
2013-03-28 01:39:00,32.7,26.0,29.45,WNW,295,5.0,8.0,76,0.00,,,0.00,WUHU216DAVISVP2,2013-03-28 05:39:00,
2013-03-28 01:40:00,32.7,26.0,29.45,WNW,295,7.0,8.0,76,0.00,,,0.00,WUHU216DAVISVP2,2013-03-28 05:40:00,
2013-03-28 01:43:00,32.7,26.0,29.45,WNW,295,6.0,8.0,76,0.00,,,0.00,WUHU216DAVISVP2,2013-03-28 05:43:00,
2013-03-28 01:44:00,32.7,26.0,29.45,WNW,295,5.0,8.0,76,0.00,,,0.00,WUHU216DAVISVP2,2013-03-28 05:44:00,
2013-03-28 01:45:00,32.7,26.0,29.45,WNW,295,5.0,8.0,76,0.00,,,0.00,WUHU216DAVISVP2,2013-03-28 05:45:00,
2013-03-28 01:48:00,32.6,25.9,29.45,WNW,295,6.0,8.0,76,0.00,,,0.00,WUHU216DAVISVP2,2013-03-28 05:48:00,
2013-03-28 01:49:00,32.6,25.9,29.45,WNW,295,5.0,8.0,76,0.00,,,0.00,WUHU216DAVISVP2,2013-03-28 05:49:00,
2013-03-28 01:51:00,32.6,25.9,29.45,WNW,295,4.0,7.0,76,0.00,,,0.00,WUHU216DAVISVP2,2013-03-28 05:51:00,
2013-03-28 01:53:00,32.5,26.1,29.45,WNW,295,5.0,7.0,77,0.00,,,0.00,WUHU216DAVISVP2,2013-03-28 05:53:00,
2013-03-28 01:54:00,32.5,26.1,29.45,WNW,295,7.0,7.0,77,0.00,,,0.00,WUHU216DAVISVP2,2013-03-28 05:54:00,
2013-03-28 01:56:00,32.5,26.1,29.45,WNW,295,5.0,7.0,77,0.00,,,0.00,WUHU216DAVISVP2,2013-03-28 05:56:00,
2013-03-28 01:58:00,32.5,26.1,29.45,WNW,295,6.0,7.0,77,0.00,,,0.00,WUHU216DAVISVP2,2013-03-28 05:58:00,
2013-03-28 01:59:00,32.5,26.1,29.45,WNW,295,5.0,7.0,77,0.00,,,0.00,WUHU216DAVISVP2,2013-03-28 05:59:00,
2013-03-28 02:02:00,32.5,26.1,29.45,WNW,295,7.0,8.0,77,0.00,,,0.00,WUHU216DAVISVP2,2013-03-28 06:02:00,
2013-03-28 02:03:00,32.5,26.1,29.45,WNW,295,5.0,8.0,77,0.00,,,0.00,WUHU216DAVISVP2,2013-03-28 06:03:00,
2013-03-28 02:04:00,32.5,26.1,29.45,WNW,295,6.0,8.0,77,0.00,,,0.00,WUHU216DAVISVP2,2013-03-28 06:04:00,
2013-03-28 02:07:00,32.4,26.0,29.45,NW,312,4.0,8.0,77,0.00,,,0.00,WUHU216DAVISVP2,2013-03-28 06:07:00,
2013-03-28 02:08:00,32.4,26.0,29.45,NW,312,4.0,8.0,77,0.00,,,0.00,WUHU216DAVISVP2,2013-03-28 06:08:00,
2013-03-28 02:09:00,32.3,25.9,29.45,NW,312,5.0,8.0,77,0.00,,,0.00,WUHU216DAVISVP2,2013-03-28 06:09:00,
2013-03-28 02:10:00,32.3,25.9,29.45,NW,310,6.0,8.0,77,0.00,,,0.00,WUHU216DAVISVP2,2013-03-28 06:10:00,
2013-03-28 02:12:00,32.2,26.1,29.45,NW,307,7.0,8.0,78,0.00,,,0.00,WUHU216DAVISVP2,2013-03-28 06:12:00,
2013-03-28 02:13:00,32.2,26.1,29.45,NW,306,5.0,8.0,78,0.00,,,0.00,WUHU216DAVISVP2,2013-03-28 06:13:00,
2013-03-28 02:14:00,32.2,26.1,29.45,WNW,301,7.0,8.0,78,0.00,,,0.00,WUHU216DAVISVP2,2013-03-28 06:14:00,
2013-03-28 02:15:00,32.2,26.1,29.45,WNW,299,7.0,8.0,78,0.00,,,0.00,WUHU216DAVISVP2,2013-03-28 06:15:00,
2013-03-28 02:18:00,32.2,26.1,29.45,WNW,299,5.0,8.0,78,0.00,,,0.00,WUHU216DAVISVP2,2013-03-28 06:18:00,
2013-03-28 02:19:00,32.1,26.0,29.45,WNW,301,5.0,8.0,78,0.00,,,0.00,WUHU216DAVISVP2,2013-03-28 06:19:00,
2013-03-28 02:20:00,32.1,26.0,29.45,WNW,301,5.0,8.0,78,0.00,,,0.00,WUHU216DAVISVP2,2013-03-28 06:20:00,
2013-03-28 02:23:00,32.1,26.0,29.45,NW,317,5.0,7.0,78,0.00,,,0.00,WUHU216DAVISVP2,2013-03-28 06:23:00,
2013-03-28 02:24:00,32.0,25.9,29.45,NW,304,6.0,7.0,78,0.00,,,0.00,WUHU216DAVISVP2,2013-03-28 06:24:00,
2013-03-28 02:25:00,32.0,25.9,29.45,NW,305,4.0,7.0,78,0.00,,,0.00,WUHU216DAVISVP2,2013-03-28 06:25:00,
2013-03-28 02:28:00,32.0,25.9,29.45,WNW,303,5.0,7.0,78,0.00,,,0.00,WUHU216DAVISVP2,2013-03-28 06:28:00,
2013-03-28 02:29:00,32.0,25.9,29.45,WNW,301,5.0,7.0,78,0.00,,,0.00,WUHU216DAVISVP2,2013-03-28 06:29:00,
2013-03-28 02:30:00,32.0,25.9,29.45,WNW,301,5.0,7.0,78,0.00,,,0.00,WUHU216DAVISVP2,2013-03-28 06:30:00,
2013-03-28 02:33:00,32.0,25.9,29.45,WNW,301,5.0,7.0,78,0.00,,,0.00,WUHU216DAVISVP2,2013-03-28 06:33:00,
2013-03-28 02:34:00,32.0,25.9,29.45,WNW,301,4.0,7.0,78,0.00,,,0.00,WUHU216DAVISVP2,2013-03-28 06:34:00,
2013-03-28 02:35:00,32.0,25.9,29.45,WNW,301,4.0,7.0,78,0.00,,,0.00,WUHU216DAVISVP2,2013-03-28 06:35:00,
2013-03-28 02:38:00,31.9,25.8,29.45,WNW,301,5.0,7.0,78,0.00,,,0.00,WUHU216DAVISVP2,2013-03-28 06:38:00,
2013-03-28 02:39:00,31.9,25.8,29.45,WNW,301,5.0,7.0,78,0.00,,,0.00,WUHU216DAVISVP2,2013-03-28 06:39:00,
2013-03-28 02:40:00,31.9,25.8,29.45,WNW,301,4.0,7.0,78,0.00,,,0.00,WUHU216DAVISVP2,2013-03-28 06:40:00,
2013-03-28 02:43:00,31.9,25.8,29.45,WNW,301,4.0,7.0,78,0.00,,,0.00,WUHU216DAVISVP2,2013-03-28 06:43:00,
2013-03-28 02:44:00,31.9,25.8,29.45,WNW,301,5.0,7.0,78,0.00,,,0.00,WUHU216DAVISVP2,2013-03-28 06:44:00,
2013-03-28 02:45:00,31.9,25.8,29.45,WNW,301,2.0,7.0,78,0.00,,,0.00,WUHU216DAVISVP2,2013-03-28 06:45:00,
2013-03-28 02:48:00,31.9,25.8,29.45,WNW,301,4.0,6.0,78,0.00,,,0.00,WUHU216DAVISVP2,2013-03-28 06:48:00,
2013-03-28 02:49:00,31.9,25.8,29.45,WNW,301,2.0,6.0,78,0.00,,,0.00,WUHU216DAVISVP2,2013-03-28 06:49:00,
2013-03-28 02:50:00,32.0,25.9,29.45,WNW,301,2.0,6.0,78,0.00,,,0.00,WUHU216DAVISVP2,2013-03-28 06:50:00,
2013-03-28 02:51:00,32.0,25.9,29.45,WNW,301,4.0,6.0,78,0.00,,,0.00,WUHU216DAVISVP2,2013-03-28 06:51:00,
2013-03-28 02:53:00,32.0,25.9,29.45,WNW,301,4.0,6.0,78,0.00,,,0.00,WUHU216DAVISVP2,2013-03-28 06:53:00,
2013-03-28 02:54:00,32.0,25.9,29.45,WNW,301,2.0,6.0,78,0.00,,,0.00,WUHU216DAVISVP2,2013-03-28 06:54:00,
2013-03-28 02:56:00,32.0,25.9,29.45,WNW,301,5.0,6.0,78,0.00,,,0.00,WUHU216DAVISVP2,2013-03-28 06:56:00,
2013-03-28 02:59:00,32.1,26.0,29.45,WNW,301,4.0,7.0,78,0.00,,,0.00,WUHU216DAVISVP2,2013-03-28 06:59:00,
2013-03-28 03:02:00,32.1,26.0,29.45,WNW,301,4.0,7.0,78,0.00,,,0.00,WUHU216DAVISVP2,2013-03-28 07:02:00,
2013-03-28 03:04:00,32.1,26.0,29.45,WNW,301,6.0,7.0,78,0.00,,,0.00,WUHU216DAVISVP2,2013-03-28 07:04:00,
2013-03-28 03:05:00,32.1,26.0,29.45,WNW,301,5.0,7.0,78,0.00,,,0.00,WUHU216DAVISVP2,2013-03-28 07:05:00,
2013-03-28 03:07:00,32.1,26.0,29.45,WNW,301,4.0,7.0,78,0.00,,,0.00,WUHU216DAVISVP2,2013-03-28 07:07:00,
2013-03-28 03:09:00,31.9,25.8,29.45,WNW,301,5.0,7.0,78,0.00,,,0.00,WUHU216DAVISVP2,2013-03-28 07:09:00,
2013-03-28 03:10:00,31.9,25.8,29.45,WNW,301,5.0,7.0,78,0.00,,,0.00,WUHU216DAVISVP2,2013-03-28 07:10:00,
2013-03-28 03:12:00,31.8,25.7,29.45,WNW,301,4.0,7.0,78,0.00,,,0.00,WUHU216DAVISVP2,2013-03-28 07:12:00,
2013-03-28 03:14:00,31.7,25.6,29.45,WNW,301,5.0,7.0,78,0.00,,,0.00,WUHU216DAVISVP2,2013-03-28 07:14:00,
2013-03-28 03:15:00,31.7,25.6,29.45,WNW,301,4.0,7.0,78,0.00,,,0.00,WUHU216DAVISVP2,2013-03-28 07:15:00,
2013-03-28 03:17:00,31.6,25.8,29.45,WNW,301,4.0,7.0,79,0.00,,,0.00,WUHU216DAVISVP2,2013-03-28 07:17:00,
2013-03-28 03:20:00,31.5,25.8,29.45,WNW,301,4.0,7.0,79,0.00,,,0.00,WUHU216DAVISVP2,2013-03-28 07:20:00,
2013-03-28 03:22:00,31.4,25.7,29.45,WNW,301,5.0,7.0,79,0.00,,,0.00,WUHU216DAVISVP2,2013-03-28 07:22:00,
2013-03-28 03:25:00,31.4,26.0,29.45,WNW,301,4.0,6.0,80,0.00,,,0.00,WUHU216DAVISVP2,2013-03-28 07:25:00,
2013-03-28 03:27:00,31.3,25.9,29.45,WNW,296,6.0,6.0,80,0.00,,,0.00,WUHU216DAVISVP2,2013-03-28 07:27:00,
2013-03-28 03:28:00,31.3,25.9,29.45,WNW,296,4.0,6.0,80,0.00,,,0.00,WUHU216DAVISVP2,2013-03-28 07:28:00,
2013-03-28 03:30:00,31.2,25.8,29.45,WNW,295,3.0,6.0,80,0.00,,,0.00,WUHU216DAVISVP2,2013-03-28 07:30:00,
2013-03-28 03:31:00,31.2,25.8,29.45,WNW,295,5.0,6.0,80,0.00,,,0.00,WUHU216DAVISVP2,2013-03-28 07:31:00,
2013-03-28 03:32:00,31.1,25.7,29.45,WNW,295,5.0,6.0,80,0.00,,,0.00,WUHU216DAVISVP2,2013-03-28 07:32:00,
2013-03-28 03:33:00,31.1,25.7,29.45,WNW,295,5.0,6.0,80,0.00,,,0.00,WUHU216DAVISVP2,2013-03-28 07:33:00,
2013-03-28 03:35:00,31.0,25.6,29.45,WNW,295,5.0,6.0,80,0.00,,,0.00,WUHU216DAVISVP2,2013-03-28 07:35:00,
2013-03-28 03:36:00,31.0,25.6,29.45,WNW,295,5.0,6.0,80,0.00,,,0.00,WUHU216DAVISVP2,2013-03-28 07:36:00,
2013-03-28 03:37:00,31.1,25.7,29.45,WNW,295,3.0,6.0,80,0.00,,,0.00,WUHU216DAVISVP2,2013-03-28 07:37:00,
2013-03-28 03:38:00,31.1,25.7,29.45,WNW,295,5.0,6.0,80,0.00,,,0.00,WUHU216DAVISVP2,2013-03-28 07:38:00,
2013-03-28 03:41:00,31.1,25.7,29.45,WNW,295,6.0,6.0,80,0.00,,,0.00,WUHU216DAVISVP2,2013-03-28 07:41:00,
2013-03-28 03:43:00,31.1,25.7,29.45,WNW,295,4.0,6.0,80,0.00,,,0.00,WUHU216DAVISVP2,2013-03-28 07:43:00,
2013-03-28 03:46:00,31.1,25.7,29.45,WNW,295,3.0,6.0,80,0.00,,,0.00,WUHU216DAVISVP2,2013-03-28 07:46:00,
2013-03-28 03:48:00,31.1,25.7,29.45,WNW,295,4.0,6.0,80,0.00,,,0.00,WUHU216DAVISVP2,2013-03-28 07:48:00,
2013-03-28 03:51:00,31.1,25.7,29.45,WNW,295,4.0,6.0,80,0.00,,,0.00,WUHU216DAVISVP2,2013-03-28 07:51:00,
2013-03-28 03:53:00,31.1,25.7,29.45,WNW,295,4.0,6.0,80,0.00,,,0.00,WUHU216DAVISVP2,2013-03-28 07:53:00,
2013-03-28 03:56:00,31.1,25.7,29.45,WNW,295,4.0,6.0,80,0.00,,,0.00,WUHU216DAVISVP2,2013-03-28 07:56:00,
2013-03-28 03:58:00,31.0,25.6,29.45,WNW,295,4.0,6.0,80,0.00,,,0.00,WUHU216DAVISVP2,2013-03-28 07:58:00,
2013-03-28 04:01:00,31.0,25.6,29.45,WNW,295,4.0,6.0,80,0.00,,,0.00,WUHU216DAVISVP2,2013-03-28 08:01:00,
2013-03-28 04:02:00,31.0,25.6,29.45,WNW,295,4.0,6.0,80,0.00,,,0.00,WUHU216DAVISVP2,2013-03-28 08:02:00,
2013-03-28 04:03:00,31.0,25.6,29.45,WNW,295,4.0,6.0,80,0.00,,,0.00,WUHU216DAVISVP2,2013-03-28 08:03:00,
2013-03-28 04:04:00,31.0,25.6,29.45,WNW,295,5.0,6.0,80,0.00,,,0.00,WUHU216DAVISVP2,2013-03-28 08:04:00,
2013-03-28 04:07:00,31.0,25.6,29.45,WNW,295,2.0,6.0,80,0.00,,,0.00,WUHU216DAVISVP2,2013-03-28 08:07:00,
2013-03-28 04:08:00,31.0,25.6,29.45,WNW,295,4.0,6.0,80,0.00,,,0.00,WUHU216DAVISVP2,2013-03-28 08:08:00,
2013-03-28 04:09:00,31.0,25.6,29.45,WNW,295,5.0,6.0,80,0.00,,,0.00,WUHU216DAVISVP2,2013-03-28 08:09:00,
2013-03-28 04:12:00,30.9,25.8,29.45,WNW,295,5.0,6.0,81,0.00,,,0.00,WUHU216DAVISVP2,2013-03-28 08:12:00,
2013-03-28 04:13:00,30.9,25.8,29.45,WNW,295,3.0,6.0,81,0.00,,,0.00,WUHU216DAVISVP2,2013-03-28 08:13:00,
2013-03-28 04:14:00,30.9,25.5,29.45,WNW,295,2.0,6.0,80,0.00,,,0.00,WUHU216DAVISVP2,2013-03-28 08:14:00,
2013-03-28 04:17:00,30.8,25.4,29.45,WNW,295,3.0,6.0,80,0.00,,,0.00,WUHU216DAVISVP2,2013-03-28 08:17:00,
2013-03-28 04:18:00,30.8,25.7,29.45,WNW,295,2.0,6.0,81,0.00,,,0.00,WUHU216DAVISVP2,2013-03-28 08:18:00,
2013-03-28 04:19:00,30.9,25.8,29.45,WNW,295,3.0,6.0,81,0.00,,,0.00,WUHU216DAVISVP2,2013-03-28 08:19:00,
2013-03-28 04:22:00,30.8,25.7,29.45,WNW,295,2.0,6.0,81,0.00,,,0.00,WUHU216DAVISVP2,2013-03-28 08:22:00,
2013-03-28 04:23:00,30.8,25.7,29.45,WNW,295,2.0,6.0,81,0.00,,,0.00,WUHU216DAVISVP2,2013-03-28 08:23:00,
2013-03-28 04:24:00,30.8,25.7,29.45,WNW,295,4.0,6.0,81,0.00,,,0.00,WUHU216DAVISVP2,2013-03-28 08:24:00,
2013-03-28 04:27:00,30.8,25.7,29.45,WNW,295,4.0,6.0,81,0.00,,,0.00,WUHU216DAVISVP2,2013-03-28 08:27:00,
2013-03-28 04:28:00,30.8,25.7,29.45,WNW,295,4.0,6.0,81,0.00,,,0.00,WUHU216DAVISVP2,2013-03-28 08:28:00,
2013-03-28 04:29:00,30.7,25.6,29.45,WNW,295,4.0,5.0,81,0.00,,,0.00,WUHU216DAVISVP2,2013-03-28 08:29:00,
2013-03-28 04:32:00,30.7,25.6,29.45,WNW,295,3.0,5.0,81,0.00,,,0.00,WUHU216DAVISVP2,2013-03-28 08:32:00,
2013-03-28 04:33:00,30.7,25.6,29.45,WNW,295,2.0,5.0,81,0.00,,,0.00,WUHU216DAVISVP2,2013-03-28 08:33:00,
2013-03-28 04:34:00,30.6,25.5,29.45,WNW,295,3.0,5.0,81,0.00,,,0.00,WUHU216DAVISVP2,2013-03-28 08:34:00,
2013-03-28 04:38:00,30.6,25.5,29.45,WNW,295,2.0,5.0,81,0.00,,,0.00,WUHU216DAVISVP2,2013-03-28 08:38:00,
2013-03-28 04:39:00,30.5,25.4,29.45,WNW,295,4.0,5.0,81,0.00,,,0.00,WUHU216DAVISVP2,2013-03-28 08:39:00,
2013-03-28 04:43:00,30.5,25.4,29.45,WNW,295,3.0,6.0,81,0.00,,,0.00,WUHU216DAVISVP2,2013-03-28 08:43:00,
2013-03-28 04:44:00,30.5,25.4,29.45,WNW,295,5.0,6.0,81,0.00,,,0.00,WUHU216DAVISVP2,2013-03-28 08:44:00,
2013-03-28 04:48:00,30.6,25.8,29.45,WNW,295,6.0,6.0,82,0.00,,,0.00,WUHU216DAVISVP2,2013-03-28 08:48:00,
2013-03-28 04:49:00,30.6,25.8,29.45,WNW,295,4.0,6.0,82,0.00,,,0.00,WUHU216DAVISVP2,2013-03-28 08:49:00,
2013-03-28 04:53:00,30.6,25.5,29.45,WNW,295,5.0,6.0,81,0.00,,,0.00,WUHU216DAVISVP2,2013-03-28 08:53:00,
2013-03-28 04:54:00,30.6,25.5,29.45,WNW,295,5.0,6.0,81,0.00,,,0.00,WUHU216DAVISVP2,2013-03-28 08:54:00,
2013-03-28 04:55:00,30.6,25.5,29.45,WNW,295,4.0,6.0,81,0.00,,,0.00,WUHU216DAVISVP2,2013-03-28 08:55:00,
2013-03-28 04:58:00,30.6,25.5,29.45,WNW,295,3.0,6.0,81,0.00,,,0.00,WUHU216DAVISVP2,2013-03-28 08:58:00,
2013-03-28 04:59:00,30.5,25.4,29.45,WNW,295,4.0,6.0,81,0.00,,,0.00,WUHU216DAVISVP2,2013-03-28 08:59:00,
2013-03-28 05:00:00,30.6,25.5,29.45,WNW,295,3.0,6.0,81,0.00,,,0.00,WUHU216DAVISVP2,2013-03-28 09:00:00,
2013-03-28 05:04:00,30.4,25.3,29.45,WNW,295,4.0,6.0,81,0.00,,,0.00,WUHU216DAVISVP2,2013-03-28 09:04:00,
2013-03-28 05:05:00,30.3,25.5,29.45,WNW,295,4.0,6.0,82,0.00,,,0.00,WUHU216DAVISVP2,2013-03-28 09:05:00,
2013-03-28 05:09:00,30.2,25.4,29.45,WNW,295,4.0,6.0,82,0.00,,,0.00,WUHU216DAVISVP2,2013-03-28 09:09:00,
2013-03-28 05:10:00,30.1,25.3,29.45,WNW,295,5.0,6.0,82,0.00,,,0.00,WUHU216DAVISVP2,2013-03-28 09:10:00,
2013-03-28 05:14:00,29.9,25.1,29.45,WNW,295,4.0,5.0,82,0.00,,,0.00,WUHU216DAVISVP2,2013-03-28 09:14:00,
2013-03-28 05:15:00,29.9,25.1,29.45,WNW,295,4.0,6.0,82,0.00,,,0.00,WUHU216DAVISVP2,2013-03-28 09:15:00,
2013-03-28 05:19:00,29.8,25.0,29.45,WNW,295,6.0,6.0,82,0.00,,,0.00,WUHU216DAVISVP2,2013-03-28 09:19:00,
2013-03-28 05:20:00,29.9,25.1,29.45,WNW,295,4.0,6.0,82,0.00,,,0.00,WUHU216DAVISVP2,2013-03-28 09:20:00,
2013-03-28 05:24:00,29.9,25.4,29.45,WNW,286,4.0,6.0,83,0.00,,,0.00,WUHU216DAVISVP2,2013-03-28 09:24:00,
2013-03-28 05:25:00,29.9,25.4,29.45,WNW,286,4.0,6.0,83,0.00,,,0.00,WUHU216DAVISVP2,2013-03-28 09:25:00,
2013-03-28 05:29:00,29.9,25.4,29.45,West,277,5.0,7.0,83,0.00,,,0.00,WUHU216DAVISVP2,2013-03-28 09:29:00,
2013-03-28 05:30:00,29.9,25.4,29.45,West,277,5.0,7.0,83,0.00,,,0.00,WUHU216DAVISVP2,2013-03-28 09:30:00,
2013-03-28 05:35:00,29.7,25.2,29.45,West,275,5.0,7.0,83,0.00,,,0.00,WUHU216DAVISVP2,2013-03-28 09:35:00,
2013-03-28 05:40:00,29.4,24.9,29.45,West,275,6.0,7.0,83,0.00,,,0.00,WUHU216DAVISVP2,2013-03-28 09:40:00,
2013-03-28 05:41:00,29.4,24.9,29.45,West,275,4.0,7.0,83,0.00,,,0.00,WUHU216DAVISVP2,2013-03-28 09:41:00,
2013-03-28 05:45:00,29.3,25.1,29.45,West,273,4.0,7.0,84,0.00,,,0.00,WUHU216DAVISVP2,2013-03-28 09:45:00,
2013-03-28 05:47:00,29.3,25.1,29.45,West,273,5.0,7.0,84,0.00,,,0.00,WUHU216DAVISVP2,2013-03-28 09:47:00,
2013-03-28 05:50:00,29.2,25.0,29.45,West,268,6.0,7.0,84,0.00,,,0.00,WUHU216DAVISVP2,2013-03-28 09:50:00,
2013-03-28 05:52:00,29.2,25.0,29.45,West,269,6.0,7.0,84,0.00,,,0.00,WUHU216DAVISVP2,2013-03-28 09:52:00,
2013-03-28 05:55:00,29.2,24.9,29.45,West,269,4.0,7.0,84,0.00,,,0.00,WUHU216DAVISVP2,2013-03-28 09:55:00,
2013-03-28 05:56:00,29.2,24.9,29.45,West,269,5.0,7.0,84,0.00,,,0.00,WUHU216DAVISVP2,2013-03-28 09:56:00,
2013-03-28 05:57:00,29.3,25.0,29.45,West,269,4.0,7.0,84,0.00,,,0.00,WUHU216DAVISVP2,2013-03-28 09:57:00,
2013-03-28 06:00:00,29.4,25.1,29.45,West,269,4.0,7.0,84,0.00,,,0.00,WUHU216DAVISVP2,2013-03-28 10:00:00,
2013-03-28 06:02:00,29.5,25.2,29.45,West,269,4.0,7.0,84,0.00,,,0.00,WUHU216DAVISVP2,2013-03-28 10:02:00,
2013-03-28 06:03:00,29.6,25.3,29.45,West,269,4.0,7.0,84,0.00,,,0.00,WUHU216DAVISVP2,2013-03-28 10:03:00,
2013-03-28 06:05:00,29.7,25.2,29.45,West,269,5.0,7.0,83,0.00,,,0.00,WUHU216DAVISVP2,2013-03-28 10:05:00,
2013-03-28 06:07:00,29.7,25.2,29.45,West,269,6.0,6.0,83,0.00,,,0.00,WUHU216DAVISVP2,2013-03-28 10:07:00,
2013-03-28 06:08:00,29.7,25.2,29.45,West,269,5.0,6.0,83,0.00,,,0.00,WUHU216DAVISVP2,2013-03-28 10:08:00,
2013-03-28 06:10:00,29.6,25.1,29.45,West,270,5.0,6.0,83,0.00,,,0.00,WUHU216DAVISVP2,2013-03-28 10:10:00,
2013-03-28 06:11:00,29.6,25.1,29.45,West,269,4.0,6.0,83,0.00,,,0.00,WUHU216DAVISVP2,2013-03-28 10:11:00,
2013-03-28 06:12:00,29.6,25.1,29.45,West,269,6.0,6.0,83,0.00,,,0.00,WUHU216DAVISVP2,2013-03-28 10:12:00,
2013-03-28 06:13:00,29.5,25.0,29.45,West,269,4.0,6.0,83,0.00,,,0.00,WUHU216DAVISVP2,2013-03-28 10:13:00,
2013-03-28 06:16:00,29.3,24.8,29.45,West,269,5.0,6.0,83,0.00,,,0.00,WUHU216DAVISVP2,2013-03-28 10:16:00,
2013-03-28 06:17:00,29.3,25.0,29.45,West,269,6.0,6.0,84,0.00,,,0.00,WUHU216DAVISVP2,2013-03-28 10:17:00,
2013-03-28 06:18:00,29.3,25.0,29.45,West,270,5.0,6.0,84,0.00,,,0.00,WUHU216DAVISVP2,2013-03-28 10:18:00,
2013-03-28 06:22:00,29.4,25.1,29.45,West,270,5.0,6.0,84,0.00,,,0.00,WUHU216DAVISVP2,2013-03-28 10:22:00,
2013-03-28 06:23:00,29.4,25.1,29.45,West,270,6.0,7.0,84,0.00,,,0.00,WUHU216DAVISVP2,2013-03-28 10:23:00,
2013-03-28 06:27:00,29.4,24.9,29.45,West,270,5.0,7.0,83,0.00,,,0.00,WUHU216DAVISVP2,2013-03-28 10:27:00,
2013-03-28 06:28:00,29.4,24.9,29.46,West,270,5.0,7.0,83,0.00,,,0.00,WUHU216DAVISVP2,2013-03-28 10:28:00,
2013-03-28 06:33:00,29.0,24.8,29.46,West,271,5.0,8.0,84,0.00,,,0.00,WUHU216DAVISVP2,2013-03-28 10:33:00,
2013-03-28 06:34:00,28.9,24.7,29.46,West,271,5.0,8.0,84,0.00,,,0.00,WUHU216DAVISVP2,2013-03-28 10:34:00,
2013-03-28 06:38:00,28.8,24.8,29.46,WNW,287,5.0,8.0,85,0.00,,,0.00,WUHU216DAVISVP2,2013-03-28 10:38:00,
2013-03-28 06:39:00,28.8,24.8,29.46,West,281,6.0,8.0,85,0.00,,,0.00,WUHU216DAVISVP2,2013-03-28 10:39:00,
2013-03-28 06:43:00,28.8,24.8,29.46,West,276,6.0,8.0,85,0.00,,,0.00,WUHU216DAVISVP2,2013-03-28 10:43:00,
2013-03-28 06:44:00,28.8,24.8,29.46,WNW,286,6.0,8.0,85,0.00,,,0.00,WUHU216DAVISVP2,2013-03-28 10:44:00,
2013-03-28 06:48:00,28.8,24.8,29.46,West,280,6.0,8.0,85,0.00,,,0.00,WUHU216DAVISVP2,2013-03-28 10:48:00,
2013-03-28 06:49:00,28.8,24.8,29.46,West,280,6.0,8.0,85,0.00,,,0.00,WUHU216DAVISVP2,2013-03-28 10:49:00,
2013-03-28 06:50:00,28.8,24.8,29.46,West,280,5.0,8.0,85,0.00,,,0.00,WUHU216DAVISVP2,2013-03-28 10:50:00,
2013-03-28 06:53:00,28.8,24.8,29.46,WNW,283,6.0,9.0,85,0.00,,,0.00,WUHU216DAVISVP2,2013-03-28 10:53:00,
2013-03-28 06:54:00,28.8,24.8,29.46,West,280,7.0,9.0,85,0.00,,,0.00,WUHU216DAVISVP2,2013-03-28 10:54:00,
2013-03-28 06:55:00,28.9,24.9,29.46,West,281,8.0,9.0,85,0.00,,,0.00,WUHU216DAVISVP2,2013-03-28 10:55:00,
2013-03-28 06:59:00,28.9,24.9,29.46,WNW,287,5.0,9.0,85,0.00,,,0.00,WUHU216DAVISVP2,2013-03-28 10:59:00,
2013-03-28 07:00:00,28.9,24.9,29.46,WNW,283,7.0,9.0,85,0.00,,,0.00,WUHU216DAVISVP2,2013-03-28 11:00:00,
2013-03-28 07:04:00,28.7,24.7,29.46,WNW,283,6.0,9.0,85,0.00,,,0.00,WUHU216DAVISVP2,2013-03-28 11:04:00,
2013-03-28 07:05:00,28.7,24.7,29.46,WNW,283,5.0,9.0,85,0.00,,,0.00,WUHU216DAVISVP2,2013-03-28 11:05:00,
2013-03-28 07:09:00,28.7,25.0,29.47,WNW,283,5.0,9.0,86,0.00,,,0.00,WUHU216DAVISVP2,2013-03-28 11:09:00,
2013-03-28 07:10:00,28.6,24.9,29.47,West,274,5.0,9.0,86,0.00,,,0.00,WUHU216DAVISVP2,2013-03-28 11:10:00,
2013-03-28 07:14:00,28.5,24.8,29.47,West,274,4.0,9.0,86,0.00,,,0.00,WUHU216DAVISVP2,2013-03-28 11:14:00,
2013-03-28 07:15:00,28.5,24.8,29.47,West,274,6.0,9.0,86,0.00,,,0.00,WUHU216DAVISVP2,2013-03-28 11:15:00,
2013-03-28 07:19:00,28.5,24.8,29.47,West,281,6.0,8.0,86,0.00,,,0.00,WUHU216DAVISVP2,2013-03-28 11:19:00,
2013-03-28 07:20:00,28.5,24.8,29.47,West,280,5.0,8.0,86,0.00,,,0.00,WUHU216DAVISVP2,2013-03-28 11:20:00,
2013-03-28 07:24:00,28.5,24.8,29.47,West,280,5.0,8.0,86,0.00,,,0.00,WUHU216DAVISVP2,2013-03-28 11:24:00,
2013-03-28 07:25:00,28.5,24.8,29.47,West,281,5.0,8.0,86,0.00,,,0.00,WUHU216DAVISVP2,2013-03-28 11:25:00,
2013-03-28 07:29:00,28.5,24.8,29.47,WNW,288,6.0,7.0,86,0.00,,,0.00,WUHU216DAVISVP2,2013-03-28 11:29:00,
2013-03-28 07:30:00,28.6,24.9,29.47,WNW,289,6.0,7.0,86,0.00,,,0.00,WUHU216DAVISVP2,2013-03-28 11:30:00,
2013-03-28 07:35:00,28.8,25.4,29.47,WNW,288,4.0,7.0,87,0.00,,,0.00,WUHU216DAVISVP2,2013-03-28 11:35:00,
2013-03-28 07:36:00,28.9,25.5,29.47,WNW,288,5.0,7.0,87,0.00,,,0.00,WUHU216DAVISVP2,2013-03-28 11:36:00,
2013-03-28 07:37:00,28.9,25.2,29.48,WNW,289,4.0,7.0,86,0.00,,,0.00,WUHU216DAVISVP2,2013-03-28 11:37:00,
2013-03-28 07:40:00,28.8,25.1,29.47,WNW,289,6.0,7.0,86,0.00,,,0.00,WUHU216DAVISVP2,2013-03-28 11:40:00,
2013-03-28 07:41:00,28.8,25.1,29.48,WNW,289,6.0,7.0,86,0.00,,,0.00,WUHU216DAVISVP2,2013-03-28 11:41:00,
2013-03-28 07:42:00,28.8,25.1,29.48,WNW,289,6.0,7.0,86,0.00,,,0.00,WUHU216DAVISVP2,2013-03-28 11:42:00,
2013-03-28 07:45:00,28.7,25.0,29.48,WNW,289,5.0,7.0,86,0.00,,,0.00,WUHU216DAVISVP2,2013-03-28 11:45:00,
2013-03-28 07:47:00,28.7,25.0,29.48,WNW,288,4.0,7.0,86,0.00,,,0.00,WUHU216DAVISVP2,2013-03-28 11:47:00,
2013-03-28 07:48:00,28.6,24.9,29.48,WNW,288,5.0,7.0,86,0.00,,,0.00,WUHU216DAVISVP2,2013-03-28 11:48:00,
2013-03-28 07:50:00,28.6,25.2,29.48,WNW,288,6.0,8.0,87,0.00,,,0.00,WUHU216DAVISVP2,2013-03-28 11:50:00,
2013-03-28 07:52:00,28.6,24.9,29.48,WNW,288,5.0,8.0,86,0.00,,,0.00,WUHU216DAVISVP2,2013-03-28 11:52:00,
2013-03-28 07:53:00,28.6,24.9,29.48,WNW,288,5.0,8.0,86,0.00,,,0.00,WUHU216DAVISVP2,2013-03-28 11:53:00,
2013-03-28 07:55:00,28.6,24.9,29.48,WNW,288,4.0,8.0,86,0.00,,,0.00,WUHU216DAVISVP2,2013-03-28 11:55:00,
2013-03-28 07:58:00,28.6,25.2,29.48,WNW,288,5.0,8.0,87,0.00,,,0.00,WUHU216DAVISVP2,2013-03-28 11:58:00,
2013-03-28 08:00:00,28.7,25.3,29.48,WNW,288,6.0,8.0,87,0.00,,,0.00,WUHU216DAVISVP2,2013-03-28 12:00:00,
2013-03-28 08:03:00,28.7,25.3,29.48,WNW,287,6.0,8.0,87,0.00,,,0.00,WUHU216DAVISVP2,2013-03-28 12:03:00,
2013-03-28 08:04:00,28.7,25.3,29.48,WNW,287,6.0,8.0,87,0.00,,,0.00,WUHU216DAVISVP2,2013-03-28 12:04:00,
2013-03-28 08:05:00,28.7,25.0,29.48,WNW,287,6.0,8.0,86,0.00,,,0.00,WUHU216DAVISVP2,2013-03-28 12:05:00,
2013-03-28 08:08:00,28.8,25.4,29.48,WNW,287,5.0,8.0,87,0.00,,,0.00,WUHU216DAVISVP2,2013-03-28 12:08:00,
2013-03-28 08:09:00,28.8,25.4,29.48,WNW,287,5.0,7.0,87,0.00,,,0.00,WUHU216DAVISVP2,2013-03-28 12:09:00,
2013-03-28 08:10:00,28.8,25.4,29.48,WNW,287,7.0,7.0,87,0.00,,,0.00,WUHU216DAVISVP2,2013-03-28 12:10:00,
2013-03-28 08:11:00,28.8,25.4,29.48,WNW,287,7.0,7.0,87,0.00,,,0.00,WUHU216DAVISVP2,2013-03-28 12:11:00,
2013-03-28 08:13:00,28.8,25.4,29.48,WNW,285,5.0,7.0,87,0.00,,,0.00,WUHU216DAVISVP2,2013-03-28 12:13:00,
2013-03-28 08:14:00,28.9,25.5,29.48,WNW,285,6.0,7.0,87,0.00,,,0.00,WUHU216DAVISVP2,2013-03-28 12:14:00,
2013-03-28 08:16:00,28.9,25.5,29.48,WNW,285,5.0,7.0,87,0.00,,,0.00,WUHU216DAVISVP2,2013-03-28 12:16:00,
2013-03-28 08:18:00,29.0,25.6,29.48,WNW,285,6.0,8.0,87,0.00,,,0.00,WUHU216DAVISVP2,2013-03-28 12:18:00,
2013-03-28 08:20:00,29.0,25.6,29.48,WNW,284,7.0,8.0,87,0.00,,,0.00,WUHU216DAVISVP2,2013-03-28 12:20:00,
2013-03-28 08:21:00,29.1,25.7,29.48,WNW,284,5.0,8.0,87,0.00,,,0.00,WUHU216DAVISVP2,2013-03-28 12:21:00,
2013-03-28 08:23:00,29.1,25.4,29.48,WNW,284,4.0,8.0,86,0.00,,,0.00,WUHU216DAVISVP2,2013-03-28 12:23:00,
2013-03-28 08:25:00,29.1,25.4,29.48,West,276,5.0,8.0,86,0.00,,,0.00,WUHU216DAVISVP2,2013-03-28 12:25:00,
2013-03-28 08:26:00,29.2,25.5,29.48,West,276,5.0,8.0,86,0.00,,,0.00,WUHU216DAVISVP2,2013-03-28 12:26:00,
2013-03-28 08:27:00,29.2,25.5,29.48,West,276,7.0,8.0,86,0.00,,,0.00,WUHU216DAVISVP2,2013-03-28 12:27:00,
2013-03-28 08:28:00,29.2,25.5,29.48,West,276,4.0,8.0,86,0.00,,,0.00,WUHU216DAVISVP2,2013-03-28 12:28:00,
2013-03-28 08:31:00,29.3,25.6,29.48,West,277,5.0,8.0,86,0.00,,,0.00,WUHU216DAVISVP2,2013-03-28 12:31:00,
2013-03-28 08:32:00,29.4,25.7,29.48,West,277,5.0,8.0,86,0.00,,,0.00,WUHU216DAVISVP2,2013-03-28 12:32:00,
2013-03-28 08:34:00,29.4,25.7,29.49,West,277,2.0,8.0,86,0.00,,,0.00,WUHU216DAVISVP2,2013-03-28 12:34:00,
2013-03-28 08:36:00,29.5,25.8,29.49,West,278,7.0,8.0,86,0.00,,,0.00,WUHU216DAVISVP2,2013-03-28 12:36:00,
2013-03-28 08:37:00,29.6,25.9,29.49,West,278,6.0,8.0,86,0.00,,,0.00,WUHU216DAVISVP2,2013-03-28 12:37:00,
2013-03-28 08:38:00,29.6,25.9,29.48,West,279,7.0,8.0,86,0.00,,,0.00,WUHU216DAVISVP2,2013-03-28 12:38:00,
2013-03-28 08:39:00,29.6,25.9,29.49,West,279,6.0,8.0,86,0.00,,,0.00,WUHU216DAVISVP2,2013-03-28 12:39:00,
2013-03-28 08:42:00,29.7,26.0,29.48,West,280,4.0,8.0,86,0.00,,,0.00,WUHU216DAVISVP2,2013-03-28 12:42:00,
2013-03-28 08:43:00,29.8,26.1,29.48,West,280,2.0,8.0,86,0.00,,,0.00,WUHU216DAVISVP2,2013-03-28 12:43:00,
2013-03-28 08:44:00,29.9,26.2,29.49,West,280,5.0,8.0,86,0.00,,,0.00,WUHU216DAVISVP2,2013-03-28 12:44:00,
2013-03-28 08:47:00,30.1,26.4,29.49,West,280,5.0,7.0,86,0.00,,,0.00,WUHU216DAVISVP2,2013-03-28 12:47:00,
2013-03-28 08:48:00,30.1,26.4,29.48,West,280,8.0,8.0,86,0.00,,,0.00,WUHU216DAVISVP2,2013-03-28 12:48:00,
2013-03-28 08:49:00,30.2,26.5,29.48,West,280,7.0,8.0,86,0.00,,,0.00,WUHU216DAVISVP2,2013-03-28 12:49:00,
2013-03-28 08:53:00,30.4,26.4,29.49,West,281,5.0,9.0,85,0.00,,,0.00,WUHU216DAVISVP2,2013-03-28 12:53:00,
2013-03-28 08:54:00,30.5,26.5,29.49,West,281,5.0,9.0,85,0.00,,,0.00,WUHU216DAVISVP2,2013-03-28 12:54:00,
2013-03-28 08:58:00,30.7,26.7,29.49,WNW,283,4.0,9.0,85,0.00,,,0.00,WUHU216DAVISVP2,2013-03-28 12:58:00,
2013-03-28 08:59:00,30.8,26.8,29.48,WNW,283,5.0,9.0,85,0.00,,,0.00,WUHU216DAVISVP2,2013-03-28 12:59:00,
2013-03-28 09:03:00,31.2,26.9,29.49,WNW,283,4.0,9.0,84,0.00,,,0.00,WUHU216DAVISVP2,2013-03-28 13:03:00,
2013-03-28 09:04:00,31.2,26.9,29.48,WNW,297,8.0,9.0,84,0.00,,,0.00,WUHU216DAVISVP2,2013-03-28 13:04:00,
2013-03-28 09:08:00,31.6,27.0,29.49,West,280,8.0,8.0,83,0.00,,,0.00,WUHU216DAVISVP2,2013-03-28 13:08:00,
2013-03-28 09:09:00,31.6,27.0,29.49,WNW,287,6.0,8.0,83,0.00,,,0.00,WUHU216DAVISVP2,2013-03-28 13:09:00,
2013-03-28 09:13:00,32.0,27.1,29.49,West,280,8.0,8.0,82,0.00,,,0.00,WUHU216DAVISVP2,2013-03-28 13:13:00,
2013-03-28 09:14:00,31.9,27.0,29.49,WNW,288,7.0,8.0,82,0.00,,,0.00,WUHU216DAVISVP2,2013-03-28 13:14:00,
2013-03-28 09:18:00,32.3,27.1,29.49,WNW,297,6.0,9.0,81,0.00,,,0.00,WUHU216DAVISVP2,2013-03-28 13:18:00,
2013-03-28 09:19:00,32.3,27.1,29.49,WNW,297,5.0,9.0,81,0.00,,,0.00,WUHU216DAVISVP2,2013-03-28 13:19:00,
2013-03-28 09:20:00,32.4,27.2,29.49,WNW,285,6.0,9.0,81,0.00,,,0.00,WUHU216DAVISVP2,2013-03-28 13:20:00,
2013-03-28 09:23:00,32.6,27.4,29.49,WNW,299,5.0,9.0,81,0.00,,,0.00,WUHU216DAVISVP2,2013-03-28 13:23:00,
2013-03-28 09:24:00,32.6,27.4,29.49,WNW,299,3.0,9.0,81,0.00,,,0.00,WUHU216DAVISVP2,2013-03-28 13:24:00,
2013-03-28 09:25:00,32.7,27.5,29.49,WNW,292,5.0,9.0,81,0.00,,,0.00,WUHU216DAVISVP2,2013-03-28 13:25:00,
2013-03-28 09:28:00,32.9,27.4,29.49,NW,305,5.0,9.0,80,0.00,,,0.00,WUHU216DAVISVP2,2013-03-28 13:28:00,
2013-03-28 09:29:00,32.9,27.1,29.49,NW,308,5.0,9.0,79,0.00,,,0.00,WUHU216DAVISVP2,2013-03-28 13:29:00,
2013-03-28 09:30:00,33.0,27.2,29.49,WNW,292,5.0,9.0,79,0.00,,,0.00,WUHU216DAVISVP2,2013-03-28 13:30:00,
2013-03-28 09:34:00,33.3,27.5,29.49,WNW,301,6.0,9.0,79,0.00,,,0.00,WUHU216DAVISVP2,2013-03-28 13:34:00,
2013-03-28 09:35:00,33.4,27.6,29.49,WNW,289,7.0,9.0,79,0.00,,,0.00,WUHU216DAVISVP2,2013-03-28 13:35:00,
2013-03-28 09:39:00,33.6,27.2,29.49,WNW,296,6.0,11.0,77,0.00,,,0.00,WUHU216DAVISVP2,2013-03-28 13:39:00,
2013-03-28 09:40:00,33.7,27.3,29.49,WNW,298,7.0,11.0,77,0.00,,,0.00,WUHU216DAVISVP2,2013-03-28 13:40:00,
2013-03-28 09:44:00,34.0,27.6,29.49,WNW,291,5.0,11.0,77,0.00,,,0.00,WUHU216DAVISVP2,2013-03-28 13:44:00,
2013-03-28 09:45:00,34.1,27.7,29.49,WNW,301,5.0,11.0,77,0.00,,,0.00,WUHU216DAVISVP2,2013-03-28 13:45:00,
2013-03-28 09:49:00,34.3,27.9,29.49,WNW,299,5.0,11.0,77,0.00,,,0.00,WUHU216DAVISVP2,2013-03-28 13:49:00,
2013-03-28 09:50:00,34.3,27.6,29.49,WNW,301,5.0,11.0,76,0.00,,,0.00,WUHU216DAVISVP2,2013-03-28 13:50:00,
2013-03-28 09:54:00,34.6,27.8,29.49,WNW,295,5.0,11.0,76,0.00,,,0.00,WUHU216DAVISVP2,2013-03-28 13:54:00,
2013-03-28 09:55:00,34.6,27.8,29.49,NW,313,10.0,11.0,76,0.00,,,0.00,WUHU216DAVISVP2,2013-03-28 13:55:00,
2013-03-28 09:56:00,34.7,27.6,29.49,WNW,303,8.0,11.0,75,0.00,,,0.00,WUHU216DAVISVP2,2013-03-28 13:56:00,
2013-03-28 09:59:00,34.8,27.7,29.49,WNW,284,8.0,10.0,75,0.00,,,0.00,WUHU216DAVISVP2,2013-03-28 13:59:00,
2013-03-28 10:00:00,34.8,27.7,29.49,WNW,299,6.0,10.0,75,0.00,,,0.00,WUHU216DAVISVP2,2013-03-28 14:00:00,
2013-03-28 10:02:00,34.9,27.8,29.49,WNW,289,7.0,10.0,75,0.00,,,0.00,WUHU216DAVISVP2,2013-03-28 14:02:00,
2013-03-28 10:04:00,34.9,27.5,29.49,WNW,291,8.0,10.0,74,0.00,,,0.00,WUHU216DAVISVP2,2013-03-28 14:04:00,
2013-03-28 10:05:00,34.9,27.5,29.49,WNW,287,6.0,10.0,74,0.00,,,0.00,WUHU216DAVISVP2,2013-03-28 14:05:00,
2013-03-28 10:07:00,35.0,27.6,29.49,WNW,289,7.0,10.0,74,0.00,,,0.00,WUHU216DAVISVP2,2013-03-28 14:07:00,
2013-03-28 10:09:00,35.2,27.8,29.49,NW,309,7.0,10.0,74,0.00,,,0.00,WUHU216DAVISVP2,2013-03-28 14:09:00,
2013-03-28 10:10:00,35.2,27.8,29.49,NW,316,6.0,10.0,74,0.00,,,0.00,WUHU216DAVISVP2,2013-03-28 14:10:00,
2013-03-28 10:12:00,35.3,27.9,29.49,WNW,299,9.0,10.0,74,0.00,,,0.00,WUHU216DAVISVP2,2013-03-28 14:12:00,
2013-03-28 10:14:00,35.4,28.0,29.49,WNW,287,8.0,10.0,74,0.00,,,0.00,WUHU216DAVISVP2,2013-03-28 14:14:00,
2013-03-28 10:15:00,35.4,28.0,29.49,WNW,285,5.0,10.0,74,0.00,,,0.00,WUHU216DAVISVP2,2013-03-28 14:15:00,
2013-03-28 10:16:00,35.5,28.1,29.49,WNW,291,6.0,10.0,74,0.00,,,0.00,WUHU216DAVISVP2,2013-03-28 14:16:00,
2013-03-28 10:17:00,35.5,28.1,29.49,NW,308,5.0,10.0,74,0.00,,,0.00,WUHU216DAVISVP2,2013-03-28 14:17:00,
2013-03-28 10:19:00,35.9,28.8,29.49,NW,317,5.0,10.0,75,0.00,,,0.00,WUHU216DAVISVP2,2013-03-28 14:19:00,
2013-03-28 10:20:00,35.9,28.8,29.49,WNW,301,6.0,10.0,75,0.00,,,0.00,WUHU216DAVISVP2,2013-03-28 14:20:00,
2013-03-28 10:21:00,36.0,28.8,29.49,NW,317,8.0,10.0,75,0.00,,,0.00,WUHU216DAVISVP2,2013-03-28 14:21:00,
2013-03-28 10:22:00,36.1,28.3,29.50,WNW,282,12.0,12.0,73,0.00,,,0.00,WUHU216DAVISVP2,2013-03-28 14:22:00,
2013-03-28 10:24:00,36.1,27.9,29.49,WNW,302,10.0,12.0,72,0.00,,,0.00,WUHU216DAVISVP2,2013-03-28 14:24:00,
2013-03-28 10:25:00,36.0,27.8,29.50,WNW,288,7.0,12.0,72,0.00,,,0.00,WUHU216DAVISVP2,2013-03-28 14:25:00,
2013-03-28 10:26:00,36.0,27.8,29.50,WNW,284,9.0,12.0,72,0.00,,,0.00,WUHU216DAVISVP2,2013-03-28 14:26:00,
2013-03-28 10:27:00,36.1,27.9,29.50,WNW,303,7.0,12.0,72,0.00,,,0.00,WUHU216DAVISVP2,2013-03-28 14:27:00,
2013-03-28 10:30:00,36.2,28.4,29.50,WNW,288,10.0,12.0,73,0.00,,,0.00,WUHU216DAVISVP2,2013-03-28 14:30:00,
2013-03-28 10:31:00,36.3,28.5,29.49,WNW,294,5.0,12.0,73,0.00,,,0.00,WUHU216DAVISVP2,2013-03-28 14:31:00,
2013-03-28 10:32:00,36.4,28.6,29.49,NW,312,8.0,12.0,73,0.00,,,0.00,WUHU216DAVISVP2,2013-03-28 14:32:00,
2013-03-28 10:33:00,36.4,28.6,29.50,NW,320,7.0,12.0,73,0.00,,,0.00,WUHU216DAVISVP2,2013-03-28 14:33:00,
2013-03-28 10:35:00,36.5,28.3,29.49,NW,322,5.0,12.0,72,0.00,,,0.00,WUHU216DAVISVP2,2013-03-28 14:35:00,
2013-03-28 10:36:00,36.6,28.4,29.49,WNW,293,7.0,12.0,72,0.00,,,0.00,WUHU216DAVISVP2,2013-03-28 14:36:00,
2013-03-28 10:37:00,36.5,28.3,29.49,WNW,291,10.0,13.0,72,0.00,,,0.00,WUHU216DAVISVP2,2013-03-28 14:37:00,
2013-03-28 10:38:00,36.5,28.0,29.50,WNW,290,8.0,13.0,71,0.00,,,0.00,WUHU216DAVISVP2,2013-03-28 14:38:00,
2013-03-28 10:40:00,36.4,27.9,29.50,WNW,297,10.0,13.0,71,0.00,,,0.00,WUHU216DAVISVP2,2013-03-28 14:40:00,
2013-03-28 10:41:00,36.5,28.0,29.50,WNW,288,7.0,13.0,71,0.00,,,0.00,WUHU216DAVISVP2,2013-03-28 14:41:00,
2013-03-28 10:42:00,36.6,28.4,29.50,NW,310,8.0,13.0,72,0.00,,,0.00,WUHU216DAVISVP2,2013-03-28 14:42:00,
2013-03-28 10:43:00,36.6,28.4,29.50,WNW,287,10.0,13.0,72,0.00,,,0.00,WUHU216DAVISVP2,2013-03-28 14:43:00,
2013-03-28 10:45:00,36.7,28.2,29.50,WNW,285,9.0,13.0,71,0.00,,,0.00,WUHU216DAVISVP2,2013-03-28 14:45:00,
2013-03-28 10:47:00,36.6,28.4,29.50,WNW,289,6.0,13.0,72,0.00,,,0.00,WUHU216DAVISVP2,2013-03-28 14:47:00,
2013-03-28 10:48:00,36.6,28.4,29.50,WNW,283,8.0,13.0,72,0.00,,,0.00,WUHU216DAVISVP2,2013-03-28 14:48:00,
2013-03-28 10:50:00,36.9,28.7,29.50,WNW,287,10.0,13.0,72,0.00,,,0.00,WUHU216DAVISVP2,2013-03-28 14:50:00,
2013-03-28 10:52:00,37.0,28.5,29.50,WNW,295,8.0,13.0,71,0.00,,,0.00,WUHU216DAVISVP2,2013-03-28 14:52:00,
2013-03-28 10:53:00,37.1,28.6,29.50,NW,305,10.0,13.0,71,0.00,,,0.00,WUHU216DAVISVP2,2013-03-28 14:53:00,
2013-03-28 10:55:00,37.2,28.7,29.50,WNW,297,9.0,13.0,71,0.00,,,0.00,WUHU216DAVISVP2,2013-03-28 14:55:00,
2013-03-28 10:57:00,37.4,29.3,29.50,WNW,294,6.0,12.0,72,0.00,,,0.00,WUHU216DAVISVP2,2013-03-28 14:57:00,
2013-03-28 10:58:00,37.5,29.4,29.50,NW,306,7.0,12.0,72,0.00,,,0.00,WUHU216DAVISVP2,2013-03-28 14:58:00,
2013-03-28 11:00:00,37.7,28.9,29.50,WNW,294,9.0,12.0,70,0.00,,,0.00,WUHU216DAVISVP2,2013-03-28 15:00:00,
2013-03-28 11:02:00,37.8,28.6,29.50,NW,307,8.0,12.0,69,0.00,,,0.00,WUHU216DAVISVP2,2013-03-28 15:02:00,
2013-03-28 11:03:00,37.8,28.3,29.50,NW,308,7.0,12.0,68,0.00,,,0.00,WUHU216DAVISVP2,2013-03-28 15:03:00,
2013-03-28 11:06:00,37.9,28.4,29.50,WNW,298,9.0,12.0,68,0.00,,,0.00,WUHU216DAVISVP2,2013-03-28 15:06:00,
2013-03-28 11:07:00,37.9,28.4,29.50,NNW,330,7.0,12.0,68,0.00,,,0.00,WUHU216DAVISVP2,2013-03-28 15:07:00,
2013-03-28 11:08:00,37.9,28.4,29.50,NW,308,7.0,12.0,68,0.00,,,0.00,WUHU216DAVISVP2,2013-03-28 15:08:00,
2013-03-28 11:11:00,38.1,28.5,29.50,WNW,287,8.0,12.0,68,0.00,,,0.00,WUHU216DAVISVP2,2013-03-28 15:11:00,
2013-03-28 11:12:00,38.2,28.3,29.50,WNW,300,6.0,12.0,67,0.00,,,0.00,WUHU216DAVISVP2,2013-03-28 15:12:00,
2013-03-28 11:13:00,38.3,28.4,29.50,NW,322,6.0,12.0,67,0.00,,,0.00,WUHU216DAVISVP2,2013-03-28 15:13:00,
2013-03-28 11:16:00,38.5,28.9,29.50,West,277,8.0,12.0,68,0.00,,,0.00,WUHU216DAVISVP2,2013-03-28 15:16:00,
2013-03-28 11:17:00,38.5,28.6,29.50,NW,308,8.0,12.0,67,0.00,,,0.00,WUHU216DAVISVP2,2013-03-28 15:17:00,
2013-03-28 11:18:00,38.6,28.7,29.50,WNW,295,7.0,12.0,67,0.00,,,0.00,WUHU216DAVISVP2,2013-03-28 15:18:00,
2013-03-28 11:21:00,38.6,28.7,29.50,NW,305,9.0,12.0,67,0.00,,,0.00,WUHU216DAVISVP2,2013-03-28 15:21:00,
2013-03-28 11:23:00,38.6,28.3,29.49,WNW,297,7.0,12.0,66,0.00,,,0.00,WUHU216DAVISVP2,2013-03-28 15:23:00,
2013-03-28 11:24:00,38.5,28.2,29.50,WNW,297,9.0,12.0,66,0.00,,,0.00,WUHU216DAVISVP2,2013-03-28 15:24:00,
2013-03-28 11:26:00,38.7,28.8,29.50,WNW,288,6.0,12.0,67,0.00,,,0.00,WUHU216DAVISVP2,2013-03-28 15:26:00,
2013-03-28 11:28:00,38.9,29.0,29.50,WNW,303,7.0,12.0,67,0.00,,,0.00,WUHU216DAVISVP2,2013-03-28 15:28:00,
2013-03-28 11:29:00,38.9,28.6,29.49,NNW,330,6.0,12.0,66,0.00,,,0.00,WUHU216DAVISVP2,2013-03-28 15:29:00,
2013-03-28 11:31:00,38.9,28.2,29.49,West,274,9.0,12.0,65,0.00,,,0.00,WUHU216DAVISVP2,2013-03-28 15:31:00,
2013-03-28 11:33:00,38.8,28.1,29.49,WNW,299,7.0,12.0,65,0.00,,,0.00,WUHU216DAVISVP2,2013-03-28 15:33:00,
2013-03-28 11:34:00,38.9,28.2,29.49,WNW,299,5.0,12.0,65,0.00,,,0.00,WUHU216DAVISVP2,2013-03-28 15:34:00,
2013-03-28 11:36:00,39.1,28.8,29.49,NW,308,4.0,12.0,66,0.00,,,0.00,WUHU216DAVISVP2,2013-03-28 15:36:00,
2013-03-28 11:38:00,39.1,28.4,29.49,NNW,338,6.0,12.0,65,0.00,,,0.00,WUHU216DAVISVP2,2013-03-28 15:38:00,
2013-03-28 11:39:00,39.2,28.1,29.49,NW,311,8.0,12.0,64,0.00,,,0.00,WUHU216DAVISVP2,2013-03-28 15:39:00,
2013-03-28 11:42:00,39.2,28.5,29.49,West,274,6.0,12.0,65,0.00,,,0.00,WUHU216DAVISVP2,2013-03-28 15:42:00,
2013-03-28 11:43:00,39.4,29.1,29.49,WNW,301,5.0,11.0,66,0.00,,,0.00,WUHU216DAVISVP2,2013-03-28 15:43:00,
2013-03-28 11:44:00,39.5,29.2,29.49,NW,309,7.0,11.0,66,0.00,,,0.00,WUHU216DAVISVP2,2013-03-28 15:44:00,
2013-03-28 11:47:00,39.7,29.4,29.49,WNW,300,9.0,11.0,66,0.00,,,0.00,WUHU216DAVISVP2,2013-03-28 15:47:00,
2013-03-28 11:48:00,39.7,28.6,29.49,NW,304,6.0,11.0,64,0.00,,,0.00,WUHU216DAVISVP2,2013-03-28 15:48:00,
2013-03-28 11:49:00,39.7,28.2,29.49,WNW,303,4.0,11.0,63,0.00,,,0.00,WUHU216DAVISVP2,2013-03-28 15:49:00,
2013-03-28 11:52:00,39.8,28.3,29.49,WNW,282,7.0,11.0,63,0.00,,,0.00,WUHU216DAVISVP2,2013-03-28 15:52:00,
2013-03-28 11:53:00,39.8,28.3,29.49,WNW,299,4.0,11.0,63,0.00,,,0.00,WUHU216DAVISVP2,2013-03-28 15:53:00,
2013-03-28 11:54:00,40.0,28.9,29.50,WNW,298,10.0,11.0,64,0.00,,,0.00,WUHU216DAVISVP2,2013-03-28 15:54:00,
2013-03-28 11:57:00,40.2,28.7,29.50,WNW,289,8.0,10.0,63,0.00,,,0.00,WUHU216DAVISVP2,2013-03-28 15:57:00,
2013-03-28 11:58:00,40.3,28.8,29.50,NW,310,6.0,10.0,63,0.00,,,0.00,WUHU216DAVISVP2,2013-03-28 15:58:00,
2013-03-28 11:59:00,40.5,29.0,29.49,NW,305,7.0,10.0,63,0.00,,,0.00,WUHU216DAVISVP2,2013-03-28 15:59:00,
2013-03-28 12:00:00,40.6,29.5,29.49,West,270,8.0,10.0,64,0.00,,,0.00,WUHU216DAVISVP2,2013-03-28 16:00:00,
2013-03-28 12:02:00,40.6,28.7,29.50,West,262,6.0,11.0,62,0.00,,,0.00,WUHU216DAVISVP2,2013-03-28 16:02:00,
2013-03-28 12:03:00,40.6,28.7,29.49,NW,312,7.0,11.0,62,0.00,,,0.00,WUHU216DAVISVP2,2013-03-28 16:03:00,
2013-03-28 12:04:00,40.8,28.0,29.50,NW,308,11.0,11.0,60,0.00,,,0.00,WUHU216DAVISVP2,2013-03-28 16:04:00,
2013-03-28 12:05:00,40.8,28.0,29.50,NW,309,8.0,11.0,60,0.00,,,0.00,WUHU216DAVISVP2,2013-03-28 16:05:00,
2013-03-28 12:08:00,40.7,27.1,29.49,NNE,33,7.0,11.0,58,0.00,,,0.00,WUHU216DAVISVP2,2013-03-28 16:08:00,
2013-03-28 12:10:00,41.0,26.9,29.49,NNE,29,4.0,11.0,57,0.00,,,0.00,WUHU216DAVISVP2,2013-03-28 16:10:00,
2013-03-28 12:13:00,41.4,28.5,29.49,North,4,5.0,11.0,60,0.00,,,0.00,WUHU216DAVISVP2,2013-03-28 16:13:00,
2013-03-28 12:15:00,41.6,28.3,29.49,NNW,327,7.0,11.0,59,0.00,,,0.00,WUHU216DAVISVP2,2013-03-28 16:15:00,
2013-03-28 12:18:00,41.5,26.5,29.50,West,280,7.0,11.0,55,0.00,,,0.00,WUHU216DAVISVP2,2013-03-28 16:18:00,
2013-03-28 12:19:00,41.5,27.0,29.50,WNW,301,7.0,11.0,56,0.00,,,0.00,WUHU216DAVISVP2,2013-03-28 16:19:00,
2013-03-28 12:20:00,41.4,27.3,29.50,NW,316,7.0,11.0,57,0.00,,,0.00,WUHU216DAVISVP2,2013-03-28 16:20:00,
2013-03-28 12:23:00,41.3,27.2,29.50,WNW,289,2.0,11.0,57,0.00,,,0.00,WUHU216DAVISVP2,2013-03-28 16:23:00,
2013-03-28 12:24:00,41.3,27.6,29.50,NNW,347,4.0,11.0,58,0.00,,,0.00,WUHU216DAVISVP2,2013-03-28 16:24:00,
2013-03-28 12:25:00,41.6,28.4,29.50,WNW,301,6.0,11.0,59,0.00,,,0.00,WUHU216DAVISVP2,2013-03-28 16:25:00,
2013-03-28 12:28:00,41.7,26.3,29.50,NW,305,9.0,12.0,54,0.00,,,0.00,WUHU216DAVISVP2,2013-03-28 16:28:00,
2013-03-28 12:29:00,41.6,25.7,29.50,WNW,298,6.0,12.0,53,0.00,,,0.00,WUHU216DAVISVP2,2013-03-28 16:29:00,
2013-03-28 12:30:00,41.5,25.6,29.50,NNW,329,11.0,12.0,53,0.00,,,0.00,WUHU216DAVISVP2,2013-03-28 16:30:00,
2013-03-28 12:34:00,41.5,25.6,29.50,NNW,333,6.0,13.0,53,0.00,,,0.00,WUHU216DAVISVP2,2013-03-28 16:34:00,
2013-03-28 12:35:00,41.6,26.2,29.50,North,349,5.0,13.0,54,0.00,,,0.00,WUHU216DAVISVP2,2013-03-28 16:35:00,
2013-03-28 12:39:00,41.6,24.8,29.50,NW,322,8.0,13.0,51,0.00,,,0.00,WUHU216DAVISVP2,2013-03-28 16:39:00,
2013-03-28 12:40:00,41.6,24.8,29.50,NNW,332,10.0,13.0,51,0.00,,,0.00,WUHU216DAVISVP2,2013-03-28 16:40:00,
2013-03-28 12:44:00,41.7,25.8,29.49,NNW,343,8.0,13.0,53,0.00,,,0.00,WUHU216DAVISVP2,2013-03-28 16:44:00,
2013-03-28 12:45:00,41.8,26.4,29.49,NNW,341,8.0,13.0,54,0.00,,,0.00,WUHU216DAVISVP2,2013-03-28 16:45:00,
2013-03-28 12:46:00,41.8,26.4,29.49,North,4,10.0,13.0,54,0.00,,,0.00,WUHU216DAVISVP2,2013-03-28 16:46:00,
2013-03-28 12:49:00,42.0,25.1,29.49,NNW,335,7.0,13.0,51,0.00,,,0.00,WUHU216DAVISVP2,2013-03-28 16:49:00,
2013-03-28 12:50:00,42.0,25.2,29.49,NNW,335,11.0,13.0,51,0.00,,,0.00,WUHU216DAVISVP2,2013-03-28 16:50:00,
2013-03-28 12:51:00,42.0,25.2,29.49,North,11,9.0,13.0,51,0.00,,,0.00,WUHU216DAVISVP2,2013-03-28 16:51:00,
2013-03-28 12:54:00,41.9,25.5,29.49,North,349,10.0,13.0,52,0.00,,,0.00,WUHU216DAVISVP2,2013-03-28 16:54:00,
2013-03-28 12:55:00,41.9,25.5,29.49,NNW,339,10.0,13.0,52,0.00,,,0.00,WUHU216DAVISVP2,2013-03-28 16:55:00,
2013-03-28 12:57:00,41.9,25.1,29.49,North,354,5.0,13.0,51,0.00,,,0.00,WUHU216DAVISVP2,2013-03-28 16:57:00,
2013-03-28 12:59:00,42.2,26.3,29.49,NNE,16,9.0,13.0,53,0.00,,,0.00,WUHU216DAVISVP2,2013-03-28 16:59:00,
2013-03-28 13:00:00,42.2,25.8,29.49,NNW,348,9.0,13.0,52,0.00,,,0.00,WUHU216DAVISVP2,2013-03-28 17:00:00,
2013-03-28 13:01:00,42.2,25.3,29.49,NW,324,6.0,13.0,51,0.00,,,0.00,WUHU216DAVISVP2,2013-03-28 17:01:00,
2013-03-28 13:02:00,42.2,25.3,29.49,NW,316,5.0,13.0,51,0.00,,,0.00,WUHU216DAVISVP2,2013-03-28 17:02:00,
2013-03-28 13:04:00,42.5,26.6,29.49,NNW,337,6.0,13.0,53,0.00,,,0.00,WUHU216DAVISVP2,2013-03-28 17:04:00,
2013-03-28 13:05:00,42.6,27.1,29.49,NW,321,4.0,13.0,54,0.00,,,0.00,WUHU216DAVISVP2,2013-03-28 17:05:00,
2013-03-28 13:06:00,42.7,26.7,29.49,NW,318,5.0,13.0,53,0.00,,,0.00,WUHU216DAVISVP2,2013-03-28 17:06:00,
2013-03-28 13:08:00,42.9,26.9,29.49,NW,326,8.0,13.0,53,0.00,,,0.00,WUHU216DAVISVP2,2013-03-28 17:08:00,
2013-03-28 13:09:00,43.0,26.6,29.49,NNW,334,11.0,12.0,52,0.00,,,0.00,WUHU216DAVISVP2,2013-03-28 17:09:00,
2013-03-28 13:10:00,43.0,26.1,29.49,WNW,295,11.0,12.0,51,0.00,,,0.00,WUHU216DAVISVP2,2013-03-28 17:10:00,
2013-03-28 13:12:00,42.9,25.0,29.49,NW,320,7.0,12.0,49,0.00,,,0.00,WUHU216DAVISVP2,2013-03-28 17:12:00,
2013-03-28 13:14:00,42.8,25.9,29.49,WNW,302,6.0,13.0,51,0.00,,,0.00,WUHU216DAVISVP2,2013-03-28 17:14:00,
2013-03-28 13:15:00,42.8,25.4,29.49,WNW,299,7.0,13.0,50,0.00,,,0.00,WUHU216DAVISVP2,2013-03-28 17:15:00,
2013-03-28 13:17:00,42.8,24.9,29.49,NW,318,9.0,13.0,49,0.00,,,0.00,WUHU216DAVISVP2,2013-03-28 17:17:00,
2013-03-28 13:19:00,42.9,26.5,29.49,WNW,295,13.0,13.0,52,0.00,,,0.00,WUHU216DAVISVP2,2013-03-28 17:19:00,
2013-03-28 13:20:00,42.9,26.5,29.49,WNW,299,10.0,13.0,52,0.00,,,0.00,WUHU216DAVISVP2,2013-03-28 17:20:00,
2013-03-28 13:22:00,42.8,25.4,29.49,WNW,302,8.0,13.0,50,0.00,,,0.00,WUHU216DAVISVP2,2013-03-28 17:22:00,
2013-03-28 13:24:00,42.5,24.6,29.49,NNW,332,7.0,13.0,49,0.00,,,0.00,WUHU216DAVISVP2,2013-03-28 17:24:00,
2013-03-28 13:25:00,42.5,24.6,29.49,NW,324,12.0,13.0,49,0.00,,,0.00,WUHU216DAVISVP2,2013-03-28 17:25:00,
2013-03-28 13:27:00,42.3,23.9,29.49,NNW,344,5.0,13.0,48,0.00,,,0.00,WUHU216DAVISVP2,2013-03-28 17:27:00,
2013-03-28 13:29:00,42.4,24.5,29.49,North,354,9.0,14.0,49,0.00,,,0.00,WUHU216DAVISVP2,2013-03-28 17:29:00,
2013-03-28 13:30:00,42.4,24.5,29.49,NW,318,9.0,14.0,49,0.00,,,0.00,WUHU216DAVISVP2,2013-03-28 17:30:00,
2013-03-28 13:32:00,42.7,26.3,29.49,WNW,300,8.0,14.0,52,0.00,,,0.00,WUHU216DAVISVP2,2013-03-28 17:32:00,
2013-03-28 13:34:00,42.8,25.9,29.49,NW,305,7.0,14.0,51,0.00,,,0.00,WUHU216DAVISVP2,2013-03-28 17:34:00,
2013-03-28 13:35:00,42.8,26.4,29.49,WNW,300,10.0,14.0,52,0.00,,,0.00,WUHU216DAVISVP2,2013-03-28 17:35:00,
2013-03-28 13:37:00,42.9,27.4,29.49,West,270,7.0,14.0,54,0.00,,,0.00,WUHU216DAVISVP2,2013-03-28 17:37:00,
2013-03-28 13:39:00,43.3,27.3,29.49,WNW,285,11.0,14.0,53,0.00,,,0.00,WUHU216DAVISVP2,2013-03-28 17:39:00,
2013-03-28 13:40:00,43.4,27.4,29.49,WNW,284,11.0,14.0,53,0.00,,,0.00,WUHU216DAVISVP2,2013-03-28 17:40:00,
2013-03-28 13:42:00,43.3,25.9,29.49,West,276,12.0,15.0,50,0.00,,,0.00,WUHU216DAVISVP2,2013-03-28 17:42:00,
2013-03-28 13:45:00,43.3,25.4,29.49,NW,326,9.0,15.0,49,0.00,,,0.00,WUHU216DAVISVP2,2013-03-28 17:45:00,
2013-03-28 13:47:00,43.1,26.2,29.49,West,281,9.0,15.0,51,0.00,,,0.00,WUHU216DAVISVP2,2013-03-28 17:47:00,
2013-03-28 13:50:00,42.8,26.4,29.49,WNW,299,6.0,15.0,52,0.00,,,0.00,WUHU216DAVISVP2,2013-03-28 17:50:00,
2013-03-28 13:52:00,42.9,26.5,29.49,WNW,285,8.0,15.0,52,0.00,,,0.00,WUHU216DAVISVP2,2013-03-28 17:52:00,
2013-03-28 13:55:00,43.2,26.7,29.49,NW,307,7.0,15.0,52,0.00,,,0.00,WUHU216DAVISVP2,2013-03-28 17:55:00,
2013-03-28 13:56:00,43.1,26.6,29.49,NW,304,7.0,15.0,52,0.00,,,0.00,WUHU216DAVISVP2,2013-03-28 17:56:00,
2013-03-28 13:57:00,43.1,26.6,29.49,WNW,301,5.0,15.0,52,0.00,,,0.00,WUHU216DAVISVP2,2013-03-28 17:57:00,
2013-03-28 14:00:00,43.1,26.6,29.49,West,268,4.0,15.0,52,0.00,,,0.00,WUHU216DAVISVP2,2013-03-28 18:00:00,
2013-03-28 14:01:00,43.1,26.2,29.48,West,268,2.0,15.0,51,0.00,,,0.00,WUHU216DAVISVP2,2013-03-28 18:01:00,
2013-03-28 14:03:00,43.2,26.7,29.49,West,272,6.0,15.0,52,0.00,,,0.00,WUHU216DAVISVP2,2013-03-28 18:03:00,
2013-03-28 14:05:00,43.6,27.1,29.49,WNW,287,13.0,14.0,52,0.00,,,0.00,WUHU216DAVISVP2,2013-03-28 18:05:00,
2013-03-28 14:06:00,43.6,27.1,29.49,WNW,289,11.0,14.0,52,0.00,,,0.00,WUHU216DAVISVP2,2013-03-28 18:06:00,
2013-03-28 14:07:00,43.4,26.4,29.49,WNW,293,12.0,14.0,51,0.00,,,0.00,WUHU216DAVISVP2,2013-03-28 18:07:00,
2013-03-28 14:08:00,43.3,26.3,29.49,WNW,297,9.0,14.0,51,0.00,,,0.00,WUHU216DAVISVP2,2013-03-28 18:08:00,
2013-03-28 14:11:00,43.4,26.9,29.49,West,262,5.0,14.0,52,0.00,,,0.00,WUHU216DAVISVP2,2013-03-28 18:11:00,
2013-03-28 14:12:00,43.5,27.0,29.49,WNW,299,9.0,14.0,52,0.00,,,0.00,WUHU216DAVISVP2,2013-03-28 18:12:00,
2013-03-28 14:13:00,43.6,26.6,29.49,WNW,303,9.0,14.0,51,0.00,,,0.00,WUHU216DAVISVP2,2013-03-28 18:13:00,
2013-03-28 14:16:00,43.7,26.7,29.48,West,269,11.0,14.0,51,0.00,,,0.00,WUHU216DAVISVP2,2013-03-28 18:16:00,
2013-03-28 14:17:00,43.7,26.7,29.48,WSW,258,8.0,14.0,51,0.00,,,0.00,WUHU216DAVISVP2,2013-03-28 18:17:00,
2013-03-28 14:18:00,43.7,26.2,29.48,SW,228,2.0,14.0,50,0.00,,,0.00,WUHU216DAVISVP2,2013-03-28 18:18:00,
2013-03-28 14:22:00,44.1,27.1,29.48,WNW,289,5.0,14.0,51,0.00,,,0.00,WUHU216DAVISVP2,2013-03-28 18:22:00,
2013-03-28 14:23:00,44.3,28.2,29.48,WNW,303,11.0,14.0,53,0.00,,,0.00,WUHU216DAVISVP2,2013-03-28 18:23:00,
2013-03-28 14:27:00,44.0,27.0,29.48,WNW,301,7.0,14.0,51,0.00,,,0.00,WUHU216DAVISVP2,2013-03-28 18:27:00,
2013-03-28 14:28:00,43.9,26.4,29.48,WNW,291,9.0,14.0,50,0.00,,,0.00,WUHU216DAVISVP2,2013-03-28 18:28:00,
2013-03-28 14:32:00,44.3,26.8,29.48,West,270,11.0,14.0,50,0.00,,,0.00,WUHU216DAVISVP2,2013-03-28 18:32:00,
2013-03-28 14:33:00,44.3,25.8,29.48,WNW,292,9.0,14.0,48,0.00,,,0.00,WUHU216DAVISVP2,2013-03-28 18:33:00,
2013-03-28 14:37:00,44.3,27.3,29.48,West,276,8.0,14.0,51,0.00,,,0.00,WUHU216DAVISVP2,2013-03-28 18:37:00,
2013-03-28 14:38:00,44.4,27.4,29.48,SW,233,4.0,14.0,51,0.00,,,0.00,WUHU216DAVISVP2,2013-03-28 18:38:00,
2013-03-28 14:42:00,44.3,27.3,29.48,West,276,9.0,16.0,51,0.00,,,0.00,WUHU216DAVISVP2,2013-03-28 18:42:00,
2013-03-28 14:43:00,44.2,26.7,29.48,West,281,7.0,16.0,50,0.00,,,0.00,WUHU216DAVISVP2,2013-03-28 18:43:00,
2013-03-28 14:47:00,43.7,26.7,29.48,NW,305,7.0,16.0,51,0.00,,,0.00,WUHU216DAVISVP2,2013-03-28 18:47:00,
2013-03-28 14:48:00,43.7,26.7,29.48,NNW,335,6.0,16.0,51,0.00,,,0.00,WUHU216DAVISVP2,2013-03-28 18:48:00,
2013-03-28 14:49:00,43.6,26.1,29.48,NNW,332,2.0,16.0,50,0.00,,,0.00,WUHU216DAVISVP2,2013-03-28 18:49:00,
2013-03-28 14:52:00,44.0,28.4,29.48,WNW,301,10.0,16.0,54,0.00,,,0.00,WUHU216DAVISVP2,2013-03-28 18:52:00,
2013-03-28 14:53:00,44.1,28.5,29.48,WNW,303,10.0,16.0,54,0.00,,,0.00,WUHU216DAVISVP2,2013-03-28 18:53:00,
2013-03-28 14:54:00,44.1,27.6,29.48,WNW,299,10.0,16.0,52,0.00,,,0.00,WUHU216DAVISVP2,2013-03-28 18:54:00,
2013-03-28 14:57:00,43.9,27.4,29.48,West,270,8.0,16.0,52,0.00,,,0.00,WUHU216DAVISVP2,2013-03-28 18:57:00,
2013-03-28 14:58:00,44.0,27.5,29.48,NW,314,7.0,16.0,52,0.00,,,0.00,WUHU216DAVISVP2,2013-03-28 18:58:00,
2013-03-28 14:59:00,44.1,28.1,29.47,NW,307,8.0,16.0,53,0.00,,,0.00,WUHU216DAVISVP2,2013-03-28 18:59:00,
2013-03-28 15:02:00,44.1,27.1,29.47,WNW,298,5.0,14.0,51,0.00,,,0.00,WUHU216DAVISVP2,2013-03-28 19:02:00,
2013-03-28 15:03:00,44.0,27.0,29.47,WNW,298,5.0,14.0,51,0.00,,,0.00,WUHU216DAVISVP2,2013-03-28 19:03:00,
2013-03-28 15:04:00,44.1,27.6,29.47,West,269,9.0,14.0,52,0.00,,,0.00,WUHU216DAVISVP2,2013-03-28 19:04:00,
2013-03-28 15:07:00,44.2,27.2,29.47,WNW,298,9.0,14.0,51,0.00,,,0.00,WUHU216DAVISVP2,2013-03-28 19:07:00,
2013-03-28 15:08:00,44.2,27.2,29.47,WNW,285,12.0,14.0,51,0.00,,,0.00,WUHU216DAVISVP2,2013-03-28 19:08:00,
2013-03-28 15:09:00,44.3,27.8,29.47,NW,309,8.0,14.0,52,0.00,,,0.00,WUHU216DAVISVP2,2013-03-28 19:09:00,
2013-03-28 15:12:00,44.7,28.1,29.47,WNW,299,14.0,14.0,52,0.00,,,0.00,WUHU216DAVISVP2,2013-03-28 19:12:00,
2013-03-28 15:13:00,44.6,28.0,29.47,WNW,289,10.0,14.0,52,0.00,,,0.00,WUHU216DAVISVP2,2013-03-28 19:13:00,
2013-03-28 15:14:00,44.4,27.4,29.47,WNW,290,7.0,14.0,51,0.00,,,0.00,WUHU216DAVISVP2,2013-03-28 19:14:00,
2013-03-28 15:17:00,44.1,27.6,29.47,NW,305,8.0,14.0,52,0.00,,,0.00,WUHU216DAVISVP2,2013-03-28 19:17:00,
2013-03-28 15:18:00,44.1,27.6,29.47,NNW,342,9.0,14.0,52,0.00,,,0.00,WUHU216DAVISVP2,2013-03-28 19:18:00,
2013-03-28 15:19:00,44.1,28.1,29.47,NNW,341,7.0,14.0,53,0.00,,,0.00,WUHU216DAVISVP2,2013-03-28 19:19:00,
2013-03-28 15:23:00,44.7,28.6,29.46,West,268,9.0,14.0,53,0.00,,,0.00,WUHU216DAVISVP2,2013-03-28 19:23:00,
2013-03-28 15:24:00,44.8,27.7,29.46,WSW,249,5.0,14.0,51,0.00,,,0.00,WUHU216DAVISVP2,2013-03-28 19:24:00,
2013-03-28 15:28:00,44.9,27.8,29.46,West,280,13.0,15.0,51,0.00,,,0.00,WUHU216DAVISVP2,2013-03-28 19:28:00,
2013-03-28 15:29:00,44.9,27.8,29.46,NW,308,12.0,15.0,51,0.00,,,0.00,WUHU216DAVISVP2,2013-03-28 19:29:00,
2013-03-28 15:33:00,44.5,27.9,29.46,NW,310,8.0,16.0,52,0.00,,,0.00,WUHU216DAVISVP2,2013-03-28 19:33:00,
2013-03-28 15:34:00,44.5,28.4,29.46,WNW,289,8.0,16.0,53,0.00,,,0.00,WUHU216DAVISVP2,2013-03-28 19:34:00,
2013-03-28 15:38:00,44.8,28.7,29.46,North,354,6.0,16.0,53,0.00,,,0.00,WUHU216DAVISVP2,2013-03-28 19:38:00,
2013-03-28 15:39:00,44.8,28.7,29.46,NW,317,5.0,16.0,53,0.00,,,0.00,WUHU216DAVISVP2,2013-03-28 19:39:00,
2013-03-28 15:43:00,44.9,28.3,29.46,NNW,346,6.0,16.0,52,0.00,,,0.00,WUHU216DAVISVP2,2013-03-28 19:43:00,
2013-03-28 15:44:00,44.9,28.3,29.46,NNE,18,5.0,16.0,52,0.00,,,0.00,WUHU216DAVISVP2,2013-03-28 19:44:00,
2013-03-28 15:48:00,45.3,28.7,29.46,NNW,330,10.0,16.0,52,0.00,,,0.00,WUHU216DAVISVP2,2013-03-28 19:48:00,
2013-03-28 15:49:00,45.2,28.6,29.46,NNW,328,9.0,16.0,52,0.00,,,0.00,WUHU216DAVISVP2,2013-03-28 19:49:00,
2013-03-28 15:54:00,45.2,29.1,29.45,NW,311,8.0,15.0,53,0.00,,,0.00,WUHU216DAVISVP2,2013-03-28 19:54:00,
2013-03-28 15:55:00,45.4,29.7,29.45,West,269,11.0,15.0,54,0.00,,,0.00,WUHU216DAVISVP2,2013-03-28 19:55:00,
2013-03-28 15:59:00,45.5,28.4,29.46,WNW,301,11.0,15.0,51,0.00,,,0.00,WUHU216DAVISVP2,2013-03-28 19:59:00,
2013-03-28 16:00:00,45.4,28.8,29.45,NW,317,9.0,15.0,52,0.00,,,0.00,WUHU216DAVISVP2,2013-03-28 20:00:00,
2013-03-28 16:04:00,45.2,27.6,29.45,WNW,285,10.0,15.0,50,0.00,,,0.00,WUHU216DAVISVP2,2013-03-28 20:04:00,
2013-03-28 16:05:00,45.1,28.0,29.45,WNW,290,11.0,15.0,51,0.00,,,0.00,WUHU216DAVISVP2,2013-03-28 20:05:00,
2013-03-28 16:09:00,45.1,29.0,29.45,WNW,292,9.0,15.0,53,0.00,,,0.00,WUHU216DAVISVP2,2013-03-28 20:09:00,
2013-03-28 16:10:00,45.2,28.6,29.45,NW,306,8.0,15.0,52,0.00,,,0.00,WUHU216DAVISVP2,2013-03-28 20:10:00,
2013-03-28 16:14:00,45.5,28.4,29.45,WNW,302,11.0,15.0,51,0.00,,,0.00,WUHU216DAVISVP2,2013-03-28 20:14:00,
2013-03-28 16:15:00,45.5,27.9,29.45,NW,319,10.0,15.0,50,0.00,,,0.00,WUHU216DAVISVP2,2013-03-28 20:15:00,
2013-03-28 16:16:00,45.5,27.9,29.45,NW,310,6.0,15.0,50,0.00,,,0.00,WUHU216DAVISVP2,2013-03-28 20:16:00,
2013-03-28 16:19:00,45.6,28.5,29.45,WNW,288,6.0,13.0,51,0.00,,,0.00,WUHU216DAVISVP2,2013-03-28 20:19:00,
2013-03-28 16:20:00,45.8,29.6,29.45,NW,316,3.0,13.0,53,0.00,,,0.00,WUHU216DAVISVP2,2013-03-28 20:20:00,
2013-03-28 16:21:00,45.9,29.7,29.45,NW,316,3.0,13.0,53,0.00,,,0.00,WUHU216DAVISVP2,2013-03-28 20:21:00,
2013-03-28 16:24:00,46.0,28.4,29.45,NW,308,13.0,13.0,50,0.00,,,0.00,WUHU216DAVISVP2,2013-03-28 20:24:00,
2013-03-28 16:26:00,45.9,28.3,29.45,West,280,7.0,13.0,50,0.00,,,0.00,WUHU216DAVISVP2,2013-03-28 20:26:00,
2013-03-28 16:27:00,45.9,27.8,29.45,WNW,301,9.0,13.0,49,0.00,,,0.00,WUHU216DAVISVP2,2013-03-28 20:27:00,
2013-03-28 16:29:00,45.7,27.6,29.45,NNW,339,7.0,13.0,49,0.00,,,0.00,WUHU216DAVISVP2,2013-03-28 20:29:00,
2013-03-28 16:31:00,45.7,27.6,29.44,NNW,342,7.0,13.0,49,0.00,,,0.00,WUHU216DAVISVP2,2013-03-28 20:31:00,
2013-03-28 16:32:00,45.8,28.7,29.45,WNW,289,9.0,13.0,51,0.00,,,0.00,WUHU216DAVISVP2,2013-03-28 20:32:00,
2013-03-28 16:34:00,45.9,28.3,29.44,West,280,6.0,13.0,50,0.00,,,0.00,WUHU216DAVISVP2,2013-03-28 20:34:00,
2013-03-28 16:36:00,46.0,28.9,29.44,NW,320,4.0,13.0,51,0.00,,,0.00,WUHU216DAVISVP2,2013-03-28 20:36:00,
2013-03-28 16:37:00,46.0,28.4,29.44,NNW,337,5.0,13.0,50,0.00,,,0.00,WUHU216DAVISVP2,2013-03-28 20:37:00,
2013-03-28 16:39:00,46.1,28.5,29.44,NW,325,6.0,13.0,50,0.00,,,0.00,WUHU216DAVISVP2,2013-03-28 20:39:00,
2013-03-28 16:41:00,46.2,29.1,29.44,NW,319,4.0,13.0,51,0.00,,,0.00,WUHU216DAVISVP2,2013-03-28 20:41:00,
2013-03-28 16:42:00,46.4,29.7,29.44,WNW,284,6.0,13.0,52,0.00,,,0.00,WUHU216DAVISVP2,2013-03-28 20:42:00,
2013-03-28 16:45:00,46.5,29.3,29.44,WNW,283,11.0,13.0,51,0.00,,,0.00,WUHU216DAVISVP2,2013-03-28 20:45:00,
2013-03-28 16:46:00,46.5,28.8,29.44,West,262,11.0,13.0,50,0.00,,,0.00,WUHU216DAVISVP2,2013-03-28 20:46:00,
2013-03-28 16:47:00,46.4,28.7,29.44,West,274,10.0,14.0,50,0.00,,,0.00,WUHU216DAVISVP2,2013-03-28 20:47:00,
2013-03-28 16:50:00,46.0,28.4,29.44,NW,320,7.0,16.0,50,0.00,,,0.00,WUHU216DAVISVP2,2013-03-28 20:50:00,
2013-03-28 16:51:00,46.0,28.9,29.44,WNW,294,10.0,16.0,51,0.00,,,0.00,WUHU216DAVISVP2,2013-03-28 20:51:00,
2013-03-28 16:52:00,46.1,28.9,29.44,WNW,283,5.0,16.0,51,0.00,,,0.00,WUHU216DAVISVP2,2013-03-28 20:52:00,
2013-03-28 16:57:00,46.1,27.9,29.44,NW,310,10.0,16.0,49,0.00,,,0.00,WUHU216DAVISVP2,2013-03-28 20:57:00,
2013-03-28 17:02:00,46.2,28.5,29.44,WNW,286,7.0,16.0,50,0.00,,,0.00,WUHU216DAVISVP2,2013-03-28 21:02:00,
2013-03-28 17:03:00,46.3,28.6,29.44,NW,323,9.0,16.0,50,0.00,,,0.00,WUHU216DAVISVP2,2013-03-28 21:03:00,
2013-03-28 17:07:00,46.4,28.2,29.44,WNW,287,12.0,13.0,49,0.00,,,0.00,WUHU216DAVISVP2,2013-03-28 21:07:00,
2013-03-28 17:08:00,46.3,28.1,29.44,NW,305,8.0,13.0,49,0.00,,,0.00,WUHU216DAVISVP2,2013-03-28 21:08:00,
2013-03-28 17:12:00,46.3,28.6,29.44,WNW,293,9.0,13.0,50,0.00,,,0.00,WUHU216DAVISVP2,2013-03-28 21:12:00,
2013-03-28 17:13:00,46.3,28.6,29.43,NW,322,9.0,13.0,50,0.00,,,0.00,WUHU216DAVISVP2,2013-03-28 21:13:00,
2013-03-28 17:17:00,46.5,29.3,29.44,WNW,294,5.0,13.0,51,0.00,,,0.00,WUHU216DAVISVP2,2013-03-28 21:17:00,
2013-03-28 17:18:00,46.5,29.3,29.44,NW,304,8.0,13.0,51,0.00,,,0.00,WUHU216DAVISVP2,2013-03-28 21:18:00,
2013-03-28 17:23:00,46.4,29.2,29.44,NW,314,7.0,13.0,51,0.00,,,0.00,WUHU216DAVISVP2,2013-03-28 21:23:00,
2013-03-28 17:28:00,46.6,28.4,29.44,NW,318,7.0,13.0,49,0.00,,,0.00,WUHU216DAVISVP2,2013-03-28 21:28:00,
2013-03-28 17:29:00,46.6,28.4,29.44,WNW,283,6.0,13.0,49,0.00,,,0.00,WUHU216DAVISVP2,2013-03-28 21:29:00,
2013-03-28 17:33:00,46.7,28.5,29.44,WNW,298,1.0,13.0,49,0.00,,,0.00,WUHU216DAVISVP2,2013-03-28 21:33:00,
2013-03-28 17:34:00,46.9,28.7,29.43,WNW,298,4.0,12.0,49,0.00,,,0.00,WUHU216DAVISVP2,2013-03-28 21:34:00,
2013-03-28 17:38:00,46.7,28.0,29.44,NW,310,11.0,14.0,48,0.00,,,0.00,WUHU216DAVISVP2,2013-03-28 21:38:00,
2013-03-28 17:39:00,46.6,28.4,29.43,WNW,297,12.0,14.0,49,0.00,,,0.00,WUHU216DAVISVP2,2013-03-28 21:39:00,
2013-03-28 17:43:00,46.4,28.2,29.44,WNW,293,5.0,14.0,49,0.00,,,0.00,WUHU216DAVISVP2,2013-03-28 21:43:00,
2013-03-28 17:44:00,46.4,28.2,29.43,WNW,293,5.0,14.0,49,0.00,,,0.00,WUHU216DAVISVP2,2013-03-28 21:44:00,
2013-03-28 17:48:00,46.6,28.4,29.43,WNW,293,4.0,14.0,49,0.00,,,0.00,WUHU216DAVISVP2,2013-03-28 21:48:00,
2013-03-28 17:49:00,46.7,28.5,29.43,WNW,293,5.0,14.0,49,0.00,,,0.00,WUHU216DAVISVP2,2013-03-28 21:49:00,
2013-03-28 17:53:00,46.7,28.5,29.43,WNW,296,8.0,14.0,49,0.00,,,0.00,WUHU216DAVISVP2,2013-03-28 21:53:00,
2013-03-28 17:54:00,46.6,28.4,29.43,West,280,10.0,14.0,49,0.00,,,0.00,WUHU216DAVISVP2,2013-03-28 21:54:00,
2013-03-28 17:58:00,46.5,28.3,29.43,WNW,298,8.0,14.0,49,0.00,,,0.00,WUHU216DAVISVP2,2013-03-28 21:58:00,
2013-03-28 17:59:00,46.5,28.3,29.43,WNW,285,8.0,14.0,49,0.00,,,0.00,WUHU216DAVISVP2,2013-03-28 21:59:00,
2013-03-28 18:00:00,46.5,28.8,29.43,WNW,303,6.0,14.0,50,0.00,,,0.00,WUHU216DAVISVP2,2013-03-28 22:00:00,
2013-03-28 18:04:00,46.6,28.9,29.43,NW,312,2.0,14.0,50,0.00,,,0.00,WUHU216DAVISVP2,2013-03-28 22:04:00,
2013-03-28 18:05:00,46.7,29.0,29.43,NW,312,1.0,14.0,50,0.00,,,0.00,WUHU216DAVISVP2,2013-03-28 22:05:00,
2013-03-28 18:09:00,46.8,28.1,29.43,WNW,295,8.0,14.0,48,0.00,,,0.00,WUHU216DAVISVP2,2013-03-28 22:09:00,
2013-03-28 18:10:00,46.7,28.5,29.43,West,275,6.0,14.0,49,0.00,,,0.00,WUHU216DAVISVP2,2013-03-28 22:10:00,
2013-03-28 18:14:00,46.8,28.6,29.43,WSW,253,9.0,14.0,49,0.00,,,0.00,WUHU216DAVISVP2,2013-03-28 22:14:00,
2013-03-28 18:15:00,46.9,28.7,29.43,West,275,5.0,14.0,49,0.00,,,0.00,WUHU216DAVISVP2,2013-03-28 22:15:00,
2013-03-28 18:19:00,47.0,29.8,29.43,WNW,288,7.0,12.0,51,0.00,,,0.00,WUHU216DAVISVP2,2013-03-28 22:19:00,
2013-03-28 18:20:00,47.0,29.3,29.43,WNW,297,4.0,12.0,50,0.00,,,0.00,WUHU216DAVISVP2,2013-03-28 22:20:00,
2013-03-28 18:24:00,47.1,28.9,29.43,WNW,301,8.0,12.0,49,0.00,,,0.00,WUHU216DAVISVP2,2013-03-28 22:24:00,
2013-03-28 18:25:00,47.0,28.8,29.43,West,260,5.0,12.0,49,0.00,,,0.00,WUHU216DAVISVP2,2013-03-28 22:25:00,
2013-03-28 18:29:00,47.0,28.3,29.43,NW,318,5.0,11.0,48,0.00,,,0.00,WUHU216DAVISVP2,2013-03-28 22:29:00,
2013-03-28 18:30:00,47.0,28.3,29.43,NW,318,5.0,11.0,48,0.00,,,0.00,WUHU216DAVISVP2,2013-03-28 22:30:00,
2013-03-28 18:34:00,47.0,29.3,29.43,NW,309,7.0,11.0,50,0.00,,,0.00,WUHU216DAVISVP2,2013-03-28 22:34:00,
2013-03-28 18:35:00,46.9,28.7,29.43,WNW,294,5.0,11.0,49,0.00,,,0.00,WUHU216DAVISVP2,2013-03-28 22:35:00,
2013-03-28 18:39:00,46.8,28.6,29.43,NW,317,6.0,11.0,49,0.00,,,0.00,WUHU216DAVISVP2,2013-03-28 22:39:00,
2013-03-28 18:40:00,46.8,28.6,29.43,WNW,303,7.0,11.0,49,0.00,,,0.00,WUHU216DAVISVP2,2013-03-28 22:40:00,
2013-03-28 18:44:00,46.5,28.3,29.43,West,280,8.0,12.0,49,0.00,,,0.00,WUHU216DAVISVP2,2013-03-28 22:44:00,
2013-03-28 18:45:00,46.4,28.2,29.43,West,268,7.0,12.0,49,0.00,,,0.00,WUHU216DAVISVP2,2013-03-28 22:45:00,
2013-03-28 18:50:00,46.4,28.7,29.43,WSW,237,10.0,12.0,50,0.00,,,0.00,WUHU216DAVISVP2,2013-03-28 22:50:00,
2013-03-28 18:51:00,46.5,28.8,29.43,WSW,253,7.0,12.0,50,0.00,,,0.00,WUHU216DAVISVP2,2013-03-28 22:51:00,
2013-03-28 18:55:00,46.4,28.7,29.43,NW,307,4.0,12.0,50,0.00,,,0.00,WUHU216DAVISVP2,2013-03-28 22:55:00,
2013-03-28 18:56:00,46.4,28.7,29.43,West,263,7.0,12.0,50,0.00,,,0.00,WUHU216DAVISVP2,2013-03-28 22:56:00,
2013-03-28 19:00:00,46.2,28.5,29.43,WNW,282,7.0,12.0,50,0.00,,,0.00,WUHU216DAVISVP2,2013-03-28 23:00:00,
2013-03-28 19:01:00,46.2,28.5,29.43,WNW,287,5.0,12.0,50,0.00,,,0.00,WUHU216DAVISVP2,2013-03-28 23:01:00,
2013-03-28 19:05:00,46.1,28.4,29.43,WNW,291,6.0,11.0,50,0.00,,,0.00,WUHU216DAVISVP2,2013-03-28 23:05:00,
2013-03-28 19:06:00,46.1,28.4,29.43,WNW,297,6.0,11.0,50,0.00,,,0.00,WUHU216DAVISVP2,2013-03-28 23:06:00,
2013-03-28 19:10:00,46.0,28.9,29.43,West,265,6.0,10.0,51,0.00,,,0.00,WUHU216DAVISVP2,2013-03-28 23:10:00,
2013-03-28 19:11:00,46.0,28.9,29.43,West,264,4.0,10.0,51,0.00,,,0.00,WUHU216DAVISVP2,2013-03-28 23:11:00,
2013-03-28 19:15:00,46.0,28.9,29.43,West,272,5.0,10.0,51,0.00,,,0.00,WUHU216DAVISVP2,2013-03-28 23:15:00,
2013-03-28 19:16:00,45.9,28.8,29.43,WSW,258,7.0,10.0,51,0.00,,,0.00,WUHU216DAVISVP2,2013-03-28 23:16:00,
2013-03-28 19:20:00,45.8,29.2,29.43,West,266,5.0,9.0,52,0.00,,,0.00,WUHU216DAVISVP2,2013-03-28 23:20:00,
2013-03-28 19:21:00,45.8,29.2,29.43,West,265,6.0,9.0,52,0.00,,,0.00,WUHU216DAVISVP2,2013-03-28 23:21:00,
2013-03-28 19:26:00,45.5,30.7,29.43,WSW,250,7.0,11.0,56,0.00,,,0.00,WUHU216DAVISVP2,2013-03-28 23:26:00,
2013-03-28 19:27:00,45.4,30.7,29.43,WSW,244,5.0,11.0,56,0.00,,,0.00,WUHU216DAVISVP2,2013-03-28 23:27:00,
2013-03-28 19:31:00,45.1,30.4,29.43,WSW,251,4.0,11.0,56,0.00,,,0.00,WUHU216DAVISVP2,2013-03-28 23:31:00,
2013-03-28 19:32:00,44.9,30.2,29.43,WNW,282,6.0,11.0,56,0.00,,,0.00,WUHU216DAVISVP2,2013-03-28 23:32:00,
2013-03-28 19:36:00,44.8,30.5,29.43,West,274,5.0,11.0,57,0.00,,,0.00,WUHU216DAVISVP2,2013-03-28 23:36:00,
2013-03-28 19:37:00,44.8,30.5,29.43,West,264,9.0,12.0,57,0.00,,,0.00,WUHU216DAVISVP2,2013-03-28 23:37:00,
2013-03-28 19:41:00,44.5,30.7,29.43,West,260,9.0,12.0,58,0.00,,,0.00,WUHU216DAVISVP2,2013-03-28 23:41:00,
2013-03-28 19:42:00,44.4,30.6,29.43,WSW,248,7.0,12.0,58,0.00,,,0.00,WUHU216DAVISVP2,2013-03-28 23:42:00,
2013-03-28 19:46:00,44.2,30.8,29.43,West,268,4.0,12.0,59,0.00,,,0.00,WUHU216DAVISVP2,2013-03-28 23:46:00,
2013-03-28 19:47:00,44.2,30.8,29.43,West,268,7.0,12.0,59,0.00,,,0.00,WUHU216DAVISVP2,2013-03-28 23:47:00,
2013-03-28 19:48:00,44.1,30.7,29.43,WSW,252,8.0,12.0,59,0.00,,,0.00,WUHU216DAVISVP2,2013-03-28 23:48:00,
2013-03-28 19:51:00,43.9,30.6,29.43,SW,222,7.0,18.0,59,0.00,,,0.00,WUHU216DAVISVP2,2013-03-28 23:51:00,
2013-03-28 19:52:00,43.9,30.6,29.43,WSW,240,5.0,18.0,59,0.00,,,0.00,WUHU216DAVISVP2,2013-03-28 23:52:00,
2013-03-28 19:53:00,43.9,31.0,29.43,WSW,245,6.0,18.0,60,0.00,,,0.00,WUHU216DAVISVP2,2013-03-28 23:53:00,
2013-03-28 19:57:00,43.7,30.4,29.43,WSW,244,7.0,18.0,59,0.00,,,0.00,WUHU216DAVISVP2,2013-03-28 23:57:00,
2013-03-28 19:58:00,43.7,30.7,29.43,West,260,7.0,18.0,60,0.00,,,0.00,WUHU216DAVISVP2,2013-03-28 23:58:00,
2013-03-28 20:02:00,43.6,30.6,29.43,West,268,5.0,18.0,60,0.00,,,0.00,WUHU216DAVISVP2,2013-03-29 00:02:00,
2013-03-28 20:03:00,43.6,30.6,29.43,WSW,257,10.0,18.0,60,0.00,,,0.00,WUHU216DAVISVP2,2013-03-29 00:03:00,
2013-03-28 20:07:00,43.4,30.4,29.43,West,266,8.0,14.0,60,0.00,,,0.00,WUHU216DAVISVP2,2013-03-29 00:07:00,
2013-03-28 20:08:00,43.4,30.4,29.43,West,266,6.0,14.0,60,0.00,,,0.00,WUHU216DAVISVP2,2013-03-29 00:08:00,
2013-03-28 20:13:00,43.3,30.3,29.43,West,265,4.0,14.0,60,0.00,,,0.00,WUHU216DAVISVP2,2013-03-29 00:13:00,
2013-03-28 20:17:00,43.2,30.6,29.44,West,267,5.0,10.0,61,0.00,,,0.00,WUHU216DAVISVP2,2013-03-29 00:17:00,
2013-03-28 20:18:00,43.1,30.6,29.44,West,267,5.0,10.0,61,0.00,,,0.00,WUHU216DAVISVP2,2013-03-29 00:18:00,
2013-03-28 20:23:00,43.1,30.6,29.43,West,266,5.0,10.0,61,0.00,,,0.00,WUHU216DAVISVP2,2013-03-29 00:23:00,
2013-03-28 20:28:00,43.0,30.5,29.44,West,262,6.0,10.0,61,0.00,,,0.00,WUHU216DAVISVP2,2013-03-29 00:28:00,
2013-03-28 20:29:00,42.9,30.4,29.44,West,262,6.0,10.0,61,0.00,,,0.00,WUHU216DAVISVP2,2013-03-29 00:29:00,
2013-03-28 20:33:00,42.8,30.3,29.44,West,262,5.0,10.0,61,0.00,,,0.00,WUHU216DAVISVP2,2013-03-29 00:33:00,
2013-03-28 20:34:00,42.8,30.3,29.44,West,262,6.0,10.0,61,0.00,,,0.00,WUHU216DAVISVP2,2013-03-29 00:34:00,
2013-03-28 20:38:00,42.8,30.4,29.44,West,262,4.0,10.0,61,0.00,,,0.00,WUHU216DAVISVP2,2013-03-29 00:38:00,
2013-03-28 20:39:00,42.8,30.4,29.44,West,262,5.0,10.0,61,0.00,,,0.00,WUHU216DAVISVP2,2013-03-29 00:39:00,
2013-03-28 20:43:00,42.7,30.3,29.44,West,262,5.0,10.0,61,0.00,,,0.00,WUHU216DAVISVP2,2013-03-29 00:43:00,
2013-03-28 20:44:00,42.6,30.2,29.44,West,262,5.0,8.0,61,0.00,,,0.00,WUHU216DAVISVP2,2013-03-29 00:44:00,
2013-03-28 20:45:00,42.6,30.2,29.44,West,262,5.0,10.0,61,0.00,,,0.00,WUHU216DAVISVP2,2013-03-29 00:45:00,
2013-03-28 20:48:00,42.5,30.1,29.44,West,262,5.0,10.0,61,0.00,,,0.00,WUHU216DAVISVP2,2013-03-29 00:48:00,
2013-03-28 20:49:00,42.5,30.1,29.44,West,262,4.0,10.0,61,0.00,,,0.00,WUHU216DAVISVP2,2013-03-29 00:49:00,
2013-03-28 20:50:00,42.5,30.1,29.44,West,262,4.0,10.0,61,0.00,,,0.00,WUHU216DAVISVP2,2013-03-29 00:50:00,
2013-03-28 20:53:00,42.5,30.1,29.44,West,261,4.0,10.0,61,0.00,,,0.00,WUHU216DAVISVP2,2013-03-29 00:53:00,
2013-03-28 20:54:00,42.5,30.1,29.44,West,261,5.0,10.0,61,0.00,,,0.00,WUHU216DAVISVP2,2013-03-29 00:54:00,
2013-03-28 20:55:00,42.4,30.0,29.44,West,261,4.0,10.0,61,0.00,,,0.00,WUHU216DAVISVP2,2013-03-29 00:55:00,
2013-03-28 20:58:00,42.4,30.0,29.44,West,261,2.0,10.0,61,0.00,,,0.00,WUHU216DAVISVP2,2013-03-29 00:58:00,
2013-03-28 20:59:00,42.4,30.0,29.44,West,261,2.0,10.0,61,0.00,,,0.00,WUHU216DAVISVP2,2013-03-29 00:59:00,
2013-03-28 21:00:00,42.4,30.4,29.44,West,261,4.0,10.0,62,0.00,,,0.00,WUHU216DAVISVP2,2013-03-29 01:00:00,
2013-03-28 21:03:00,42.3,29.9,29.44,West,261,4.0,9.0,61,0.00,,,0.00,WUHU216DAVISVP2,2013-03-29 01:03:00,
2013-03-28 21:04:00,42.3,29.9,29.44,West,261,4.0,9.0,61,0.00,,,0.00,WUHU216DAVISVP2,2013-03-29 01:04:00,
2013-03-28 21:05:00,42.3,30.3,29.44,West,261,4.0,9.0,62,0.00,,,0.00,WUHU216DAVISVP2,2013-03-29 01:05:00,
2013-03-28 21:08:00,42.2,30.2,29.44,West,261,4.0,9.0,62,0.00,,,0.00,WUHU216DAVISVP2,2013-03-29 01:08:00,
2013-03-28 21:09:00,42.2,30.2,29.44,West,261,2.0,9.0,62,0.00,,,0.00,WUHU216DAVISVP2,2013-03-29 01:09:00,
2013-03-28 21:10:00,42.2,30.2,29.44,West,261,2.0,9.0,62,0.00,,,0.00,WUHU216DAVISVP2,2013-03-29 01:10:00,
2013-03-28 21:11:00,42.1,30.1,29.44,West,261,2.0,7.0,62,0.00,,,0.00,WUHU216DAVISVP2,2013-03-29 01:11:00,
2013-03-28 21:13:00,42.1,30.1,29.44,West,261,1.0,7.0,62,0.00,,,0.00,WUHU216DAVISVP2,2013-03-29 01:13:00,
2013-03-28 21:14:00,42.1,30.1,29.44,West,261,2.0,7.0,62,0.00,,,0.00,WUHU216DAVISVP2,2013-03-29 01:14:00,
2013-03-28 21:15:00,42.0,30.0,29.44,West,261,1.0,7.0,62,0.00,,,0.00,WUHU216DAVISVP2,2013-03-29 01:15:00,
2013-03-28 21:16:00,42.0,30.0,29.44,West,261,3.0,7.0,62,0.00,,,0.00,WUHU216DAVISVP2,2013-03-29 01:16:00,
2013-03-28 21:19:00,41.9,29.9,29.44,West,261,4.0,7.0,62,0.00,,,0.00,WUHU216DAVISVP2,2013-03-29 01:19:00,
2013-03-28 21:20:00,41.9,29.9,29.44,West,261,1.0,7.0,62,0.00,,,0.00,WUHU216DAVISVP2,2013-03-29 01:20:00,
2013-03-28 21:21:00,41.9,29.9,29.44,West,261,4.0,7.0,62,0.00,,,0.00,WUHU216DAVISVP2,2013-03-29 01:21:00,
2013-03-28 21:24:00,41.8,29.8,29.44,West,261,2.0,7.0,62,0.00,,,0.00,WUHU216DAVISVP2,2013-03-29 01:24:00,
2013-03-28 21:25:00,41.8,30.2,29.44,West,261,4.0,7.0,63,0.00,,,0.00,WUHU216DAVISVP2,2013-03-29 01:25:00,
2013-03-28 21:26:00,41.8,30.2,29.44,West,261,4.0,7.0,63,0.00,,,0.00,WUHU216DAVISVP2,2013-03-29 01:26:00,
2013-03-28 21:29:00,41.7,30.1,29.44,West,261,5.0,7.0,63,0.00,,,0.00,WUHU216DAVISVP2,2013-03-29 01:29:00,
2013-03-28 21:31:00,41.6,30.0,29.45,West,261,1.0,7.0,63,0.00,,,0.00,WUHU216DAVISVP2,2013-03-29 01:31:00,
2013-03-28 21:32:00,41.6,30.0,29.45,West,261,2.0,7.0,63,0.00,,,0.00,WUHU216DAVISVP2,2013-03-29 01:32:00,
2013-03-28 21:34:00,41.6,30.0,29.45,West,261,2.0,7.0,63,0.00,,,0.00,WUHU216DAVISVP2,2013-03-29 01:34:00,
2013-03-28 21:35:00,41.6,30.0,29.45,West,261,0.0,7.0,63,0.00,,,0.00,WUHU216DAVISVP2,2013-03-29 01:35:00,
2013-03-28 21:36:00,41.5,29.9,29.45,West,261,3.0,6.0,63,0.00,,,0.00,WUHU216DAVISVP2,2013-03-29 01:36:00,
2013-03-28 21:37:00,41.5,29.9,29.45,West,261,0.0,6.0,63,0.00,,,0.00,WUHU216DAVISVP2,2013-03-29 01:37:00,
2013-03-28 21:39:00,41.4,29.8,29.45,West,261,2.0,6.0,63,0.00,,,0.00,WUHU216DAVISVP2,2013-03-29 01:39:00,
2013-03-28 21:40:00,41.4,29.8,29.45,West,261,2.0,6.0,63,0.00,,,0.00,WUHU216DAVISVP2,2013-03-29 01:40:00,
2013-03-28 21:41:00,41.3,30.1,29.45,West,261,1.0,6.0,64,0.00,,,0.00,WUHU216DAVISVP2,2013-03-29 01:41:00,
2013-03-28 21:42:00,41.3,30.1,29.45,West,261,4.0,6.0,64,0.00,,,0.00,WUHU216DAVISVP2,2013-03-29 01:42:00,
2013-03-28 21:44:00,41.3,30.1,29.45,West,261,1.0,6.0,64,0.00,,,0.00,WUHU216DAVISVP2,2013-03-29 01:44:00,
2013-03-28 21:45:00,41.2,30.0,29.45,West,261,1.0,6.0,64,0.00,,,0.00,WUHU216DAVISVP2,2013-03-29 01:45:00,
2013-03-28 21:47:00,41.2,30.0,29.45,West,261,4.0,6.0,64,0.00,,,0.00,WUHU216DAVISVP2,2013-03-29 01:47:00,
2013-03-28 21:49:00,41.1,29.9,29.45,West,261,1.0,6.0,64,0.00,,,0.00,WUHU216DAVISVP2,2013-03-29 01:49:00,
2013-03-28 21:50:00,41.1,30.3,29.45,West,261,4.0,6.0,65,0.00,,,0.00,WUHU216DAVISVP2,2013-03-29 01:50:00,
2013-03-28 21:52:00,41.0,30.2,29.45,West,261,5.0,6.0,65,0.00,,,0.00,WUHU216DAVISVP2,2013-03-29 01:52:00,
2013-03-28 21:54:00,41.0,30.2,29.45,West,264,3.0,6.0,65,0.00,,,0.00,WUHU216DAVISVP2,2013-03-29 01:54:00,
2013-03-28 21:55:00,41.0,30.2,29.45,West,261,1.0,6.0,65,0.00,,,0.00,WUHU216DAVISVP2,2013-03-29 01:55:00,
2013-03-28 21:57:00,41.0,30.2,29.45,West,261,2.0,6.0,65,0.00,,,0.00,WUHU216DAVISVP2,2013-03-29 01:57:00,
2013-03-28 21:58:00,41.0,30.2,29.45,West,261,2.0,5.0,65,0.00,,,0.00,WUHU216DAVISVP2,2013-03-29 01:58:00,
2013-03-28 22:00:00,41.0,30.2,29.45,West,261,4.0,5.0,65,0.00,,,0.00,WUHU216DAVISVP2,2013-03-29 02:00:00,
2013-03-28 22:02:00,41.0,30.2,29.45,West,261,1.0,5.0,65,0.00,,,0.00,WUHU216DAVISVP2,2013-03-29 02:02:00,
2013-03-28 22:03:00,41.0,30.2,29.45,West,261,1.0,5.0,65,0.00,,,0.00,WUHU216DAVISVP2,2013-03-29 02:03:00,
2013-03-28 22:05:00,40.9,30.1,29.45,West,261,2.0,5.0,65,0.00,,,0.00,WUHU216DAVISVP2,2013-03-29 02:05:00,
2013-03-28 22:07:00,40.9,30.1,29.45,West,261,4.0,5.0,65,0.00,,,0.00,WUHU216DAVISVP2,2013-03-29 02:07:00,
2013-03-28 22:08:00,40.9,30.1,29.45,West,261,2.0,5.0,65,0.00,,,0.00,WUHU216DAVISVP2,2013-03-29 02:08:00,
2013-03-28 22:10:00,40.9,30.1,29.45,West,261,3.0,5.0,65,0.00,,,0.00,WUHU216DAVISVP2,2013-03-29 02:10:00,
2013-03-28 22:11:00,40.9,30.1,29.45,West,261,3.0,5.0,65,0.00,,,0.00,WUHU216DAVISVP2,2013-03-29 02:11:00,
2013-03-28 22:12:00,40.9,30.1,29.45,West,261,1.0,5.0,65,0.00,,,0.00,WUHU216DAVISVP2,2013-03-29 02:12:00,
2013-03-28 22:13:00,40.9,30.1,29.46,West,261,1.0,5.0,65,0.00,,,0.00,WUHU216DAVISVP2,2013-03-29 02:13:00,
2013-03-28 22:15:00,40.9,30.1,29.46,West,261,2.0,5.0,65,0.00,,,0.00,WUHU216DAVISVP2,2013-03-29 02:15:00,
2013-03-28 22:16:00,40.9,30.1,29.46,West,261,1.0,5.0,65,0.00,,,0.00,WUHU216DAVISVP2,2013-03-29 02:16:00,
2013-03-28 22:17:00,40.8,30.0,29.46,West,261,2.0,5.0,65,0.00,,,0.00,WUHU216DAVISVP2,2013-03-29 02:17:00,
2013-03-28 22:18:00,40.8,30.0,29.46,West,261,4.0,5.0,65,0.00,,,0.00,WUHU216DAVISVP2,2013-03-29 02:18:00,
2013-03-28 22:20:00,40.8,30.0,29.46,West,261,2.0,5.0,65,0.00,,,0.00,WUHU216DAVISVP2,2013-03-29 02:20:00,
2013-03-28 22:22:00,40.7,29.9,29.46,West,261,1.0,5.0,65,0.00,,,0.00,WUHU216DAVISVP2,2013-03-29 02:22:00,
2013-03-28 22:23:00,40.7,29.9,29.46,West,261,3.0,5.0,65,0.00,,,0.00,WUHU216DAVISVP2,2013-03-29 02:23:00,
2013-03-28 22:25:00,40.7,29.9,29.46,West,261,4.0,5.0,65,0.00,,,0.00,WUHU216DAVISVP2,2013-03-29 02:25:00,
2013-03-28 22:27:00,40.7,29.9,29.46,West,261,4.0,5.0,65,0.00,,,0.00,WUHU216DAVISVP2,2013-03-29 02:27:00,
2013-03-28 22:28:00,40.7,29.9,29.46,West,261,2.0,5.0,65,0.00,,,0.00,WUHU216DAVISVP2,2013-03-29 02:28:00,
2013-03-28 22:30:00,40.6,29.8,29.46,West,261,1.0,5.0,65,0.00,,,0.00,WUHU216DAVISVP2,2013-03-29 02:30:00,
2013-03-28 22:33:00,40.6,29.8,29.46,West,261,0.0,5.0,65,0.00,,,0.00,WUHU216DAVISVP2,2013-03-29 02:33:00,
2013-03-28 22:34:00,40.6,29.8,29.46,West,261,1.0,5.0,65,0.00,,,0.00,WUHU216DAVISVP2,2013-03-29 02:34:00,
2013-03-28 22:35:00,40.6,29.8,29.46,West,261,4.0,5.0,65,0.00,,,0.00,WUHU216DAVISVP2,2013-03-29 02:35:00,
2013-03-28 22:38:00,40.6,29.8,29.46,West,261,0.0,5.0,65,0.00,,,0.00,WUHU216DAVISVP2,2013-03-29 02:38:00,
2013-03-28 22:39:00,40.5,29.7,29.46,West,261,2.0,5.0,65,0.00,,,0.00,WUHU216DAVISVP2,2013-03-29 02:39:00,
2013-03-28 22:42:00,40.2,29.8,29.46,West,261,0.0,5.0,66,0.00,,,0.00,WUHU216DAVISVP2,2013-03-29 02:42:00,
2013-03-28 22:43:00,40.1,30.1,29.46,West,261,2.0,5.0,67,0.00,,,0.00,WUHU216DAVISVP2,2013-03-29 02:43:00,
2013-03-28 22:44:00,39.9,29.9,29.46,West,261,2.0,5.0,67,0.00,,,0.00,WUHU216DAVISVP2,2013-03-29 02:44:00,
2013-03-28 22:47:00,39.6,30.0,29.46,West,261,1.0,5.0,68,0.00,,,0.00,WUHU216DAVISVP2,2013-03-29 02:47:00,
2013-03-28 22:48:00,39.6,31.4,29.46,West,261,2.0,5.0,72,0.00,,,0.00,WUHU216DAVISVP2,2013-03-29 02:48:00,
2013-03-28 22:49:00,39.5,29.9,29.46,West,261,2.0,5.0,68,0.00,,,0.00,WUHU216DAVISVP2,2013-03-29 02:49:00,
2013-03-28 22:52:00,39.5,29.9,29.46,West,261,1.0,5.0,68,0.00,,,0.00,WUHU216DAVISVP2,2013-03-29 02:52:00,
2013-03-28 22:53:00,39.5,29.9,29.46,West,261,2.0,5.0,68,0.00,,,0.00,WUHU216DAVISVP2,2013-03-29 02:53:00,
2013-03-28 22:54:00,39.5,29.9,29.46,West,261,1.0,5.0,68,0.00,,,0.00,WUHU216DAVISVP2,2013-03-29 02:54:00,
2013-03-28 22:57:00,39.4,29.8,29.46,West,261,1.0,5.0,68,0.00,,,0.00,WUHU216DAVISVP2,2013-03-29 02:57:00,
2013-03-28 22:58:00,39.4,29.8,29.46,West,261,0.0,5.0,68,0.00,,,0.00,WUHU216DAVISVP2,2013-03-29 02:58:00,
2013-03-28 22:59:00,39.4,29.8,29.46,West,261,0.0,5.0,68,0.00,,,0.00,WUHU216DAVISVP2,2013-03-29 02:59:00,
2013-03-28 23:02:00,39.3,30.1,29.46,West,261,0.0,4.0,69,0.00,,,0.00,WUHU216DAVISVP2,2013-03-29 03:02:00,
2013-03-28 23:03:00,39.3,30.1,29.46,West,261,0.0,4.0,69,0.00,,,0.00,WUHU216DAVISVP2,2013-03-29 03:03:00,
2013-03-28 23:04:00,39.3,30.1,29.46,West,261,0.0,4.0,69,0.00,,,0.00,WUHU216DAVISVP2,2013-03-29 03:04:00,
2013-03-28 23:07:00,39.2,30.0,29.46,West,261,0.0,4.0,69,0.00,,,0.00,WUHU216DAVISVP2,2013-03-29 03:07:00,
2013-03-28 23:08:00,39.2,30.0,29.46,West,261,1.0,4.0,69,0.00,,,0.00,WUHU216DAVISVP2,2013-03-29 03:08:00,
2013-03-28 23:09:00,39.2,30.0,29.46,West,261,1.0,4.0,69,0.00,,,0.00,WUHU216DAVISVP2,2013-03-29 03:09:00,
2013-03-28 23:10:00,39.2,30.0,29.46,West,261,2.0,4.0,69,0.00,,,0.00,WUHU216DAVISVP2,2013-03-29 03:10:00,
2013-03-28 23:12:00,39.3,30.1,29.46,West,261,1.0,2.0,69,0.00,,,0.00,WUHU216DAVISVP2,2013-03-29 03:12:00,
2013-03-28 23:13:00,39.3,30.1,29.46,West,261,1.0,2.0,69,0.00,,,0.00,WUHU216DAVISVP2,2013-03-29 03:13:00,
2013-03-28 23:14:00,39.3,30.1,29.46,West,261,0.0,2.0,69,0.00,,,0.00,WUHU216DAVISVP2,2013-03-29 03:14:00,
2013-03-28 23:15:00,39.3,30.1,29.46,West,261,0.0,2.0,69,0.00,,,0.00,WUHU216DAVISVP2,2013-03-29 03:15:00,
2013-03-28 23:17:00,39.3,30.1,29.46,West,261,0.0,2.0,69,0.00,,,0.00,WUHU216DAVISVP2,2013-03-29 03:17:00,
2013-03-28 23:18:00,39.3,30.1,29.46,West,261,0.0,2.0,69,0.00,,,0.00,WUHU216DAVISVP2,2013-03-29 03:18:00,
2013-03-28 23:19:00,39.3,30.1,29.46,West,261,0.0,2.0,69,0.00,,,0.00,WUHU216DAVISVP2,2013-03-29 03:19:00,
2013-03-28 23:20:00,39.2,30.0,29.46,West,261,0.0,2.0,69,0.00,,,0.00,WUHU216DAVISVP2,2013-03-29 03:20:00,
2013-03-28 23:22:00,39.2,30.0,29.46,West,261,1.0,2.0,69,0.00,,,0.00,WUHU216DAVISVP2,2013-03-29 03:22:00,
2013-03-28 23:23:00,39.2,30.0,29.46,West,261,1.0,2.0,69,0.00,,,0.00,WUHU216DAVISVP2,2013-03-29 03:23:00,
2013-03-28 23:24:00,39.2,30.0,29.46,West,261,1.0,2.0,69,0.00,,,0.00,WUHU216DAVISVP2,2013-03-29 03:24:00,
2013-03-28 23:25:00,39.2,30.0,29.47,West,261,1.0,2.0,69,0.00,,,0.00,WUHU216DAVISVP2,2013-03-29 03:25:00,
2013-03-28 23:28:00,39.2,30.0,29.46,West,261,0.0,2.0,69,0.00,,,0.00,WUHU216DAVISVP2,2013-03-29 03:28:00,
2013-03-28 23:29:00,39.2,30.0,29.46,West,261,0.0,2.0,69,0.00,,,0.00,WUHU216DAVISVP2,2013-03-29 03:29:00,
2013-03-28 23:30:00,39.1,29.9,29.47,West,261,0.0,2.0,69,0.00,,,0.00,WUHU216DAVISVP2,2013-03-29 03:30:00,
2013-03-28 23:33:00,39.1,30.2,29.47,West,261,0.0,2.0,70,0.00,,,0.00,WUHU216DAVISVP2,2013-03-29 03:33:00,
2013-03-28 23:34:00,39.0,30.1,29.47,West,261,0.0,2.0,70,0.00,,,0.00,WUHU216DAVISVP2,2013-03-29 03:34:00,
2013-03-28 23:35:00,38.9,30.0,29.47,West,261,0.0,2.0,70,0.00,,,0.00,WUHU216DAVISVP2,2013-03-29 03:35:00,
2013-03-28 23:38:00,38.7,29.8,29.47,West,261,0.0,2.0,70,0.00,,,0.00,WUHU216DAVISVP2,2013-03-29 03:38:00,
2013-03-28 23:39:00,38.7,29.8,29.47,West,261,0.0,2.0,70,0.00,,,0.00,WUHU216DAVISVP2,2013-03-29 03:39:00,
2013-03-28 23:40:00,38.6,29.7,29.47,West,261,0.0,2.0,70,0.00,,,0.00,WUHU216DAVISVP2,2013-03-29 03:40:00,
2013-03-28 23:43:00,38.4,29.9,29.47,West,261,0.0,1.0,71,0.00,,,0.00,WUHU216DAVISVP2,2013-03-29 03:43:00,
2013-03-28 23:44:00,38.4,29.9,29.47,West,261,0.0,1.0,71,0.00,,,0.00,WUHU216DAVISVP2,2013-03-29 03:44:00,
2013-03-28 23:45:00,38.4,29.9,29.47,West,261,0.0,0.0,71,0.00,,,0.00,WUHU216DAVISVP2,2013-03-29 03:45:00,
2013-03-28 23:48:00,38.2,29.7,29.47,West,261,1.0,1.0,71,0.00,,,0.00,WUHU216DAVISVP2,2013-03-29 03:48:00,
2013-03-28 23:49:00,38.3,29.7,29.47,West,261,1.0,2.0,71,0.00,,,0.00,WUHU216DAVISVP2,2013-03-29 03:49:00,
2013-03-28 23:50:00,38.2,29.6,29.47,West,261,0.0,2.0,71,0.00,,,0.00,WUHU216DAVISVP2,2013-03-29 03:50:00,
2013-03-28 23:54:00,38.3,30.1,29.47,West,261,0.0,2.0,72,0.00,,,0.00,WUHU216DAVISVP2,2013-03-29 03:54:00,
2013-03-28 23:55:00,38.2,30.0,29.47,West,261,1.0,2.0,72,0.00,,,0.00,WUHU216DAVISVP2,2013-03-29 03:55:00,
2013-03-28 23:59:00,38.1,29.9,29.47,West,261,1.0,2.0,72,0.00,,,0.00,WUHU216DAVISVP2,2013-03-29 03:59:00,